Wetterdaten: Mittwoch, 15.03.2023
Datum Zeit Temp. Aussen Temp. o. S. Temp +5cm Feuchte Auss Luftdruck Regen Sonnenschein Regendauer Solar Windben Empfang
15.03.2023 00:00 3,1 C 2,2 C -0,6 C 80 % 1011,8 hPa 0,0 l/m 0 min 0 min 0 W/m 12,9 km/h (3 Bft) 95,65 %
15.03.2023 00:02 3,1 C 2,2 C -0,6 C 81 % 1011,9 hPa 0,0 l/m 0 min 0 min 0 W/m 12,9 km/h (3 Bft) 93,48 %
15.03.2023 00:04 3,1 C 2,8 C -0,6 C 81 % 1011,9 hPa 0,0 l/m 0 min 0 min 0 W/m 16,1 km/h (3 Bft) 93,62 %
15.03.2023 00:07 3,1 C 2,8 C -0,6 C 81 % 1011,9 hPa 0,0 l/m 0 min 0 min 0 W/m 19,3 km/h (3 Bft) 95,89 %
15.03.2023 00:08 3,1 C 2,8 C -0,6 C 81 % 1011,9 hPa 0,0 l/m 0 min 0 min 0 W/m 25,7 km/h (4 Bft) 91,67 %
15.03.2023 00:12 3,2 C 2,8 C -0,6 C 81 % 1011,9 hPa 0,0 l/m 0 min 0 min 0 W/m 22,5 km/h (4 Bft) 97,56 %
15.03.2023 00:14 3,2 C 2,8 C -0,6 C 81 % 1011,9 hPa 0,0 l/m 0 min 0 min 0 W/m 22,5 km/h (4 Bft) 100,00 %
15.03.2023 00:19 3,2 C 2,8 C -0,6 C 81 % 1011,9 hPa 0,0 l/m 0 min 0 min 0 W/m 16,1 km/h (3 Bft) 98,28 %
15.03.2023 00:22 3,2 C 2,8 C -0,6 C 81 % 1011,8 hPa 0,0 l/m 0 min 0 min 0 W/m 12,9 km/h (3 Bft) 96,67 %
15.03.2023 00:24 3,3 C 2,8 C -0,6 C 82 % 1011,9 hPa 0,0 l/m 0 min 0 min 0 W/m 12,9 km/h (3 Bft) 97,87 %
15.03.2023 00:26 3,3 C 2,8 C -0,6 C 82 % 1012,0 hPa 0,0 l/m 0 min 0 min 0 W/m 19,3 km/h (3 Bft) 97,87 %
15.03.2023 00:28 3,3 C 2,8 C -0,6 C 82 % 1012,0 hPa 0,0 l/m 0 min 0 min 0 W/m 12,9 km/h (3 Bft) 97,87 %
15.03.2023 00:30 3,3 C 2,8 C -0,6 C 82 % 1011,9 hPa 0,0 l/m 0 min 0 min 0 W/m 19,3 km/h (3 Bft) 97,87 %
15.03.2023 00:32 3,3 C 2,8 C -0,6 C 82 % 1011,9 hPa 0,0 l/m 0 min 0 min 0 W/m 19,3 km/h (3 Bft) 97,87 %
15.03.2023 00:34 3,3 C 2,8 C -0,6 C 83 % 1012,0 hPa 0,0 l/m 0 min 0 min 0 W/m 19,3 km/h (3 Bft) 97,87 %
15.03.2023 00:36 3,3 C 2,8 C -0,6 C 83 % 1012,0 hPa 0,0 l/m 0 min 0 min 0 W/m 16,1 km/h (3 Bft) 100,00 %
15.03.2023 00:38 3,3 C 2,8 C -0,6 C 83 % 1012,0 hPa 0,0 l/m 0 min 0 min 0 W/m 12,9 km/h (3 Bft) 100,00 %
15.03.2023 00:40 3,3 C 2,8 C -0,6 C 83 % 1012,0 hPa 0,0 l/m 0 min 0 min 0 W/m 19,3 km/h (3 Bft) 100,00 %
15.03.2023 00:42 3,3 C 2,8 C -0,6 C 84 % 1012,1 hPa 0,0 l/m 0 min 0 min 0 W/m 16,1 km/h (3 Bft) 97,87 %
15.03.2023 00:44 3,3 C 2,8 C -0,6 C 84 % 1012,1 hPa 0,0 l/m 0 min 0 min 0 W/m 16,1 km/h (3 Bft) 97,87 %
15.03.2023 00:46 3,3 C 2,8 C -0,6 C 84 % 1012,2 hPa 0,0 l/m 0 min 0 min 0 W/m 12,9 km/h (3 Bft) 100,00 %
15.03.2023 00:48 3,3 C 2,8 C -0,6 C 84 % 1012,3 hPa 0,0 l/m 0 min 0 min 0 W/m 16,1 km/h (3 Bft) 97,87 %
15.03.2023 00:50 3,2 C 2,8 C -0,6 C 84 % 1012,3 hPa 0,0 l/m 0 min 0 min 0 W/m 16,1 km/h (3 Bft) 100,00 %
15.03.2023 00:52 3,3 C 2,8 C -0,6 C 85 % 1012,3 hPa 0,0 l/m 0 min 0 min 0 W/m 12,9 km/h (3 Bft) 100,00 %
15.03.2023 00:54 3,3 C 2,8 C -0,6 C 85 % 1012,3 hPa 0,0 l/m 0 min 0 min 0 W/m 16,1 km/h (3 Bft) 100,00 %
15.03.2023 00:56 3,3 C 2,8 C -0,6 C 85 % 1012,3 hPa 0,0 l/m 0 min 0 min 0 W/m 22,5 km/h (4 Bft) 100,00 %
15.03.2023 00:58 3,3 C 2,8 C -0,6 C 86 % 1012,3 hPa 0,0 l/m 0 min 0 min 0 W/m 9,7 km/h (2 Bft) 100,00 %
15.03.2023 01:00 3,3 C 2,8 C -0,6 C 86 % 1012,4 hPa 0,0 l/m 0 min 0 min 0 W/m 22,5 km/h (4 Bft) 97,87 %
15.03.2023 01:02 3,4 C 2,8 C -0,6 C 86 % 1012,5 hPa 0,0 l/m 0 min 0 min 0 W/m 16,1 km/h (3 Bft) 100,00 %
15.03.2023 01:04 3,4 C 2,8 C -0,6 C 86 % 1012,4 hPa 0,0 l/m 0 min 0 min 0 W/m 16,1 km/h (3 Bft) 100,00 %
15.03.2023 01:06 3,4 C 2,8 C -0,6 C 86 % 1012,6 hPa 0,0 l/m 0 min 2 min 0 W/m 25,7 km/h (4 Bft) 100,00 %
15.03.2023 01:08 3,5 C 2,8 C -0,6 C 87 % 1012,6 hPa 0,0 l/m 0 min 2 min 0 W/m 22,5 km/h (4 Bft) 100,00 %
15.03.2023 01:10 3,5 C 2,8 C -0,6 C 87 % 1012,7 hPa 0,0 l/m 0 min 2 min 0 W/m 25,7 km/h (4 Bft) 97,73 %
15.03.2023 01:12 3,4 C 2,8 C -1,1 C 87 % 1012,6 hPa 0,0 l/m 0 min 2 min 0 W/m 16,1 km/h (3 Bft) 100,00 %
15.03.2023 01:14 3,4 C 2,8 C -1,1 C 88 % 1012,6 hPa 0,0 l/m 0 min 2 min 0 W/m 12,9 km/h (3 Bft) 100,00 %
15.03.2023 01:16 3,4 C 2,8 C -1,1 C 88 % 1012,6 hPa 0,0 l/m 0 min 2 min 0 W/m 16,1 km/h (3 Bft) 100,00 %
15.03.2023 01:18 3,3 C 2,8 C -1,1 C 88 % 1012,6 hPa 0,0 l/m 0 min 2 min 0 W/m 12,9 km/h (3 Bft) 95,74 %
15.03.2023 01:20 3,3 C 2,2 C -1,1 C 88 % 1012,6 hPa 0,0 l/m 0 min 2 min 0 W/m 22,5 km/h (4 Bft) 100,00 %
15.03.2023 01:22 3,2 C 2,2 C -1,1 C 89 % 1012,6 hPa 0,2 l/m 0 min 2 min 0 W/m 12,9 km/h (3 Bft) 100,00 %
15.03.2023 01:24 3,2 C 2,2 C -1,1 C 89 % 1012,8 hPa 0,0 l/m 0 min 2 min 0 W/m 19,3 km/h (3 Bft) 100,00 %
15.03.2023 01:26 3,1 C 2,2 C -1,1 C 89 % 1012,7 hPa 0,0 l/m 0 min 2 min 0 W/m 16,1 km/h (3 Bft) 100,00 %
15.03.2023 01:28 3,1 C 2,2 C -1,1 C 90 % 1012,7 hPa 0,0 l/m 0 min 2 min 0 W/m 12,9 km/h (3 Bft) 76,09 %
15.03.2023 01:30 3,0 C 2,2 C -1,1 C 90 % 1012,7 hPa 0,0 l/m 0 min 2 min 0 W/m 12,9 km/h (3 Bft) 78,05 %
15.03.2023 01:32 2,9 C 2,2 C -1,1 C 90 % 1012,8 hPa 0,0 l/m 0 min 2 min 0 W/m 16,1 km/h (3 Bft) 100,00 %
15.03.2023 01:34 2,9 C 2,2 C -1,1 C 90 % 1012,8 hPa 0,0 l/m 0 min 0 min 0 W/m 16,1 km/h (3 Bft) 100,00 %
15.03.2023 01:36 2,9 C 2,2 C -1,1 C 91 % 1012,8 hPa 0,0 l/m 0 min 0 min 0 W/m 12,9 km/h (3 Bft) 100,00 %
15.03.2023 01:38 2,9 C 2,2 C -1,1 C 91 % 1012,8 hPa 0,0 l/m 0 min 0 min 0 W/m 12,9 km/h (3 Bft) 100,00 %
15.03.2023 01:40 2,9 C 2,2 C -1,1 C 91 % 1012,8 hPa 0,0 l/m 0 min 0 min 0 W/m 6,4 km/h (2 Bft) 97,87 %
15.03.2023 01:42 2,9 C 2,2 C -1,1 C 91 % 1012,8 hPa 0,0 l/m 0 min 0 min 0 W/m 9,7 km/h (2 Bft) 94,59 %
15.03.2023 01:44 2,9 C 2,2 C -1,1 C 91 % 1012,7 hPa 0,0 l/m 0 min 0 min 0 W/m 6,4 km/h (2 Bft) 97,87 %
15.03.2023 01:46 2,9 C 2,2 C -1,1 C 91 % 1012,7 hPa 0,0 l/m 0 min 0 min 0 W/m 9,7 km/h (2 Bft) 97,87 %
15.03.2023 01:48 2,9 C 2,2 C -1,1 C 92 % 1012,8 hPa 0,0 l/m 0 min 0 min 0 W/m 6,4 km/h (2 Bft) 95,74 %
15.03.2023 01:50 2,9 C 2,2 C -1,1 C 92 % 1012,8 hPa 0,0 l/m 0 min 0 min 0 W/m 3,2 km/h (1 Bft) 97,87 %
15.03.2023 01:52 2,9 C 2,2 C -1,1 C 92 % 1012,7 hPa 0,0 l/m 0 min 0 min 0 W/m 3,2 km/h (1 Bft) 96,00 %
15.03.2023 01:54 2,9 C 2,2 C -1,1 C 92 % 1012,8 hPa 0,0 l/m 0 min 0 min 0 W/m 9,7 km/h (2 Bft) 97,96 %
15.03.2023 01:56 2,9 C 2,2 C -1,1 C 92 % 1012,8 hPa 0,0 l/m 0 min 0 min 0 W/m 3,2 km/h (1 Bft) 97,87 %
15.03.2023 01:58 2,9 C 2,2 C -1,1 C 92 % 1012,8 hPa 0,0 l/m 0 min 0 min 0 W/m 3,2 km/h (1 Bft) 97,83 %
15.03.2023 02:00 2,9 C 2,2 C -1,1 C 92 % 1012,8 hPa 0,0 l/m 0 min 0 min 0 W/m 3,2 km/h (1 Bft) 97,87 %
15.03.2023 02:02 2,9 C 2,2 C -1,1 C 92 % 1012,8 hPa 0,0 l/m 0 min 0 min 0 W/m 3,2 km/h (1 Bft) 97,44 %
15.03.2023 02:04 2,9 C 2,2 C -1,1 C 92 % 1012,8 hPa 0,0 l/m 0 min 0 min 0 W/m 3,2 km/h (1 Bft) 93,62 %
15.03.2023 02:06 2,9 C 2,2 C -1,1 C 92 % 1012,8 hPa 0,0 l/m 0 min 0 min 0 W/m 3,2 km/h (1 Bft) 96,61 %
15.03.2023 02:08 2,9 C 2,2 C -1,1 C 92 % 1012,9 hPa 0,0 l/m 0 min 0 min 0 W/m 3,2 km/h (1 Bft) 100,00 %
15.03.2023 02:10 3,0 C 2,2 C -1,1 C 93 % 1012,9 hPa 0,0 l/m 0 min 0 min 0 W/m 6,4 km/h (2 Bft) 97,87 %
15.03.2023 02:12 3,0 C 2,2 C -1,1 C 93 % 1012,9 hPa 0,0 l/m 0 min 0 min 0 W/m 6,4 km/h (2 Bft) 97,87 %
15.03.2023 02:14 3,0 C 2,2 C -1,1 C 93 % 1012,9 hPa 0,0 l/m 0 min 0 min 0 W/m 6,4 km/h (2 Bft) 95,65 %
15.03.2023 02:16 3,0 C 2,2 C -1,1 C 93 % 1012,9 hPa 0,0 l/m 0 min 0 min 0 W/m 6,4 km/h (2 Bft) 95,74 %
15.03.2023 02:18 3,0 C 2,2 C -1,1 C 93 % 1012,9 hPa 0,0 l/m 0 min 0 min 0 W/m 6,4 km/h (2 Bft) 93,62 %
15.03.2023 02:20 3,0 C 2,2 C -1,1 C 93 % 1012,9 hPa 0,0 l/m 0 min 0 min 0 W/m 6,4 km/h (2 Bft) 95,74 %
15.03.2023 02:22 3,0 C 2,2 C -1,1 C 93 % 1012,9 hPa 0,0 l/m 0 min 0 min 0 W/m 6,4 km/h (2 Bft) 95,74 %
15.03.2023 02:24 2,9 C 2,2 C -1,1 C 93 % 1012,9 hPa 0,0 l/m 0 min 0 min 0 W/m 9,7 km/h (2 Bft) 95,74 %
15.03.2023 02:26 2,9 C 2,2 C -1,1 C 93 % 1012,9 hPa 0,0 l/m 0 min 0 min 0 W/m 6,4 km/h (2 Bft) 93,48 %
15.03.2023 02:28 2,9 C 2,2 C -1,1 C 93 % 1012,9 hPa 0,0 l/m 0 min 0 min 0 W/m 9,7 km/h (2 Bft) 95,74 %
15.03.2023 02:30 2,9 C 2,2 C -1,1 C 93 % 1013,0 hPa 0,0 l/m 0 min 0 min 0 W/m 9,7 km/h (2 Bft) 95,74 %
15.03.2023 02:32 2,9 C 2,2 C -1,1 C 93 % 1013,0 hPa 0,0 l/m 0 min 0 min 0 W/m 3,2 km/h (1 Bft) 95,74 %
15.03.2023 02:34 2,9 C 2,2 C -1,1 C 93 % 1013,0 hPa 0,0 l/m 0 min 0 min 0 W/m 6,4 km/h (2 Bft) 95,74 %
15.03.2023 02:36 2,9 C 2,2 C -1,1 C 93 % 1013,0 hPa 0,0 l/m 0 min 0 min 0 W/m 3,2 km/h (1 Bft) 95,74 %
15.03.2023 02:38 2,9 C 2,2 C -1,1 C 93 % 1013,0 hPa 0,0 l/m 0 min 0 min 0 W/m 0,0 km/h (0 Bft) 96,23 %
15.03.2023 02:40 2,9 C 2,2 C -1,1 C 93 % 1013,0 hPa 0,0 l/m 0 min 0 min 0 W/m 0,0 km/h (0 Bft) 93,62 %
15.03.2023 02:42 2,9 C 2,2 C -1,1 C 93 % 1013,0 hPa 0,0 l/m 0 min 0 min 0 W/m 0,0 km/h (0 Bft) 92,00 %
15.03.2023 02:44 2,9 C 2,2 C -1,1 C 94 % 1013,0 hPa 0,0 l/m 0 min 0 min 0 W/m 0,0 km/h (0 Bft) 95,92 %
15.03.2023 02:46 2,9 C 2,2 C -1,1 C 94 % 1013,1 hPa 0,0 l/m 0 min 0 min 0 W/m 0,0 km/h (0 Bft) 95,74 %
15.03.2023 02:48 2,9 C 2,2 C -1,1 C 94 % 1013,1 hPa 0,0 l/m 0 min 0 min 0 W/m 0,0 km/h (0 Bft) 95,65 %
15.03.2023 02:50 2,9 C 2,2 C -1,1 C 93 % 1013,1 hPa 0,0 l/m 0 min 0 min 0 W/m 0,0 km/h (0 Bft) 95,74 %
15.03.2023 02:52 2,9 C 2,2 C -1,1 C 93 % 1013,1 hPa 0,0 l/m 0 min 0 min 0 W/m 0,0 km/h (0 Bft) 93,62 %
15.03.2023 02:54 2,9 C 2,2 C -1,1 C 94 % 1013,1 hPa 0,0 l/m 0 min 0 min 0 W/m 0,0 km/h (0 Bft) 95,74 %
15.03.2023 02:56 2,9 C 2,2 C -1,1 C 94 % 1013,1 hPa 0,0 l/m 0 min 0 min 0 W/m 0,0 km/h (0 Bft) 95,74 %
15.03.2023 02:58 2,9 C 2,2 C -1,1 C 94 % 1013,1 hPa 0,0 l/m 0 min 0 min 0 W/m 0,0 km/h (0 Bft) 97,87 %
15.03.2023 03:00 2,9 C 2,2 C -1,1 C 94 % 1013,1 hPa 0,0 l/m 0 min 0 min 0 W/m 0,0 km/h (0 Bft) 97,87 %
15.03.2023 03:02 2,9 C 2,2 C -1,1 C 94 % 1013,1 hPa 0,0 l/m 0 min 0 min 0 W/m 0,0 km/h (0 Bft) 95,65 %
15.03.2023 03:04 2,9 C 2,2 C -1,1 C 94 % 1013,0 hPa 0,0 l/m 0 min 0 min 0 W/m 0,0 km/h (0 Bft) 97,87 %
15.03.2023 03:06 2,9 C 2,2 C -1,1 C 94 % 1013,1 hPa 0,0 l/m 0 min 0 min 0 W/m 3,2 km/h (1 Bft) 97,87 %
15.03.2023 03:08 2,9 C 2,2 C -1,1 C 94 % 1013,0 hPa 0,0 l/m 0 min 0 min 0 W/m 0,0 km/h (0 Bft) 97,14 %
15.03.2023 03:10 2,8 C 2,2 C -1,1 C 94 % 1013,1 hPa 0,0 l/m 0 min 0 min 0 W/m 3,2 km/h (1 Bft) 97,87 %
15.03.2023 03:12 2,8 C 2,2 C -1,1 C 94 % 1013,0 hPa 0,0 l/m 0 min 0 min 0 W/m 6,4 km/h (2 Bft) 95,74 %
15.03.2023 03:14 2,8 C 2,2 C -1,1 C 94 % 1013,0 hPa 0,0 l/m 0 min 0 min 0 W/m 6,4 km/h (2 Bft) 97,87 %
15.03.2023 03:16 2,8 C 2,2 C -1,1 C 94 % 1013,0 hPa 0,0 l/m 0 min 0 min 0 W/m 12,9 km/h (3 Bft) 95,92 %
15.03.2023 03:18 2,9 C 2,8 C -1,1 C 94 % 1013,0 hPa 0,0 l/m 0 min 0 min 0 W/m 19,3 km/h (3 Bft) 97,83 %
15.03.2023 03:20 2,9 C 2,8 C -1,1 C 94 % 1013,0 hPa 0,0 l/m 0 min 0 min 0 W/m 12,9 km/h (3 Bft) 100,00 %
15.03.2023 03:22 2,9 C 2,8 C -1,1 C 94 % 1013,0 hPa 0,0 l/m 0 min 0 min 0 W/m 9,7 km/h (2 Bft) 97,87 %
15.03.2023 03:24 2,9 C 2,2 C -1,1 C 94 % 1013,1 hPa 0,0 l/m 0 min 0 min 0 W/m 9,7 km/h (2 Bft) 97,87 %
15.03.2023 03:26 2,9 C 2,2 C -1,1 C 94 % 1013,1 hPa 0,0 l/m 0 min 0 min 0 W/m 16,1 km/h (3 Bft) 97,87 %
15.03.2023 03:28 2,9 C 2,2 C -1,1 C 94 % 1013,1 hPa 0,0 l/m 0 min 0 min 0 W/m 12,9 km/h (3 Bft) 93,62 %
15.03.2023 03:30 2,9 C 2,2 C -1,1 C 94 % 1013,1 hPa 0,0 l/m 0 min 0 min 0 W/m 16,1 km/h (3 Bft) 97,87 %
15.03.2023 03:32 2,9 C 2,2 C -1,1 C 94 % 1013,2 hPa 0,0 l/m 0 min 0 min 0 W/m 16,1 km/h (3 Bft) 97,83 %
15.03.2023 03:34 2,8 C 2,2 C -1,1 C 94 % 1013,2 hPa 0,0 l/m 0 min 0 min 0 W/m 9,7 km/h (2 Bft) 95,74 %
15.03.2023 03:36 2,8 C 2,2 C -1,1 C 94 % 1013,3 hPa 0,0 l/m 0 min 0 min 0 W/m 12,9 km/h (3 Bft) 97,87 %
15.03.2023 03:38 2,8 C 2,2 C -1,1 C 94 % 1013,2 hPa 0,0 l/m 0 min 0 min 0 W/m 6,4 km/h (2 Bft) 97,87 %
15.03.2023 03:40 2,8 C 2,2 C -1,1 C 94 % 1013,2 hPa 0,0 l/m 0 min 0 min 0 W/m 12,9 km/h (3 Bft) 91,49 %
15.03.2023 03:42 2,8 C 2,2 C -1,1 C 94 % 1013,2 hPa 0,0 l/m 0 min 0 min 0 W/m 16,1 km/h (3 Bft) 97,87 %
15.03.2023 03:44 2,8 C 2,2 C -1,1 C 94 % 1013,3 hPa 0,0 l/m 0 min 0 min 0 W/m 16,1 km/h (3 Bft) 95,65 %
15.03.2023 03:46 2,8 C 2,2 C -1,1 C 94 % 1013,2 hPa 0,0 l/m 0 min 0 min 0 W/m 16,1 km/h (3 Bft) 95,74 %
15.03.2023 03:48 2,8 C 2,2 C -1,1 C 94 % 1013,2 hPa 0,0 l/m 0 min 0 min 0 W/m 12,9 km/h (3 Bft) 97,87 %
15.03.2023 03:50 2,7 C 2,2 C -1,1 C 94 % 1013,2 hPa 0,0 l/m 0 min 0 min 0 W/m 12,9 km/h (3 Bft) 95,74 %
15.03.2023 03:52 2,7 C 2,2 C -1,1 C 94 % 1013,2 hPa 0,0 l/m 0 min 0 min 0 W/m 12,9 km/h (3 Bft) 97,87 %
15.03.2023 03:54 2,7 C 2,2 C -1,1 C 94 % 1013,2 hPa 0,0 l/m 0 min 0 min 0 W/m 12,9 km/h (3 Bft) 97,87 %
15.03.2023 03:56 2,7 C 2,2 C -1,1 C 94 % 1013,3 hPa 0,0 l/m 0 min 0 min 0 W/m 6,4 km/h (2 Bft) 97,87 %
15.03.2023 03:58 2,7 C 2,2 C -1,1 C 94 % 1013,4 hPa 0,0 l/m 0 min 0 min 0 W/m 19,3 km/h (3 Bft) 95,74 %
15.03.2023 04:00 2,7 C 2,2 C -1,1 C 94 % 1013,3 hPa 0,0 l/m 0 min 0 min 0 W/m 12,9 km/h (3 Bft) 100,00 %
15.03.2023 04:02 2,6 C 2,2 C -1,1 C 94 % 1013,5 hPa 0,0 l/m 0 min 0 min 0 W/m 16,1 km/h (3 Bft) 96,67 %
15.03.2023 04:13 2,6 C 2,2 C -1,1 C 94 % 1013,5 hPa 0,0 l/m 0 min 0 min 0 W/m 12,9 km/h (3 Bft) 100,00 %
15.03.2023 04:14 2,5 C 2,2 C -1,1 C 94 % 1013,5 hPa 0,0 l/m 0 min 0 min 0 W/m 9,7 km/h (2 Bft) 100,00 %
15.03.2023 04:15 2,6 C 2,2 C -1,1 C 94 % 1013,5 hPa 0,0 l/m 0 min 0 min 0 W/m 12,9 km/h (3 Bft) 85,96 %
15.03.2023 04:20 2,5 C 2,2 C -1,1 C 94 % 1013,6 hPa 0,0 l/m 0 min 0 min 0 W/m 9,7 km/h (2 Bft) 45,61 %
15.03.2023 04:24 2,5 C 1,7 C -1,1 C 94 % 1013,6 hPa 0,2 l/m 0 min 4 min 0 W/m 6,4 km/h (2 Bft) 100,00 %
15.03.2023 04:26 2,4 C 1,7 C -1,1 C 94 % 1013,6 hPa 0,0 l/m 0 min 2 min 0 W/m 9,7 km/h (2 Bft) 100,00 %
15.03.2023 04:28 2,4 C 1,7 C -1,1 C 94 % 1013,7 hPa 0,0 l/m 0 min 0 min 0 W/m 16,1 km/h (3 Bft) 97,87 %
15.03.2023 04:30 2,4 C 1,7 C -1,1 C 94 % 1013,7 hPa 0,0 l/m 0 min 2 min 0 W/m 12,9 km/h (3 Bft) 97,87 %
15.03.2023 04:32 2,4 C 1,7 C -1,1 C 94 % 1013,7 hPa 0,0 l/m 0 min 2 min 0 W/m 16,1 km/h (3 Bft) 100,00 %
15.03.2023 04:34 2,4 C 1,7 C -1,1 C 94 % 1013,8 hPa 0,0 l/m 0 min 2 min 0 W/m 6,4 km/h (2 Bft) 97,14 %
15.03.2023 04:36 2,4 C 1,7 C -1,1 C 94 % 1013,9 hPa 0,0 l/m 0 min 2 min 0 W/m 9,7 km/h (2 Bft) 97,87 %
15.03.2023 04:38 2,4 C 1,7 C -1,1 C 94 % 1013,9 hPa 0,0 l/m 0 min 2 min 0 W/m 6,4 km/h (2 Bft) 97,87 %
15.03.2023 04:40 2,4 C 1,7 C -1,1 C 94 % 1013,9 hPa 0,0 l/m 0 min 2 min 0 W/m 6,4 km/h (2 Bft) 97,87 %
15.03.2023 04:42 2,4 C 1,7 C -1,1 C 94 % 1014,0 hPa 0,0 l/m 0 min 2 min 0 W/m 6,4 km/h (2 Bft) 97,87 %
15.03.2023 04:44 2,4 C 1,7 C -1,1 C 94 % 1014,0 hPa 0,0 l/m 0 min 2 min 0 W/m 22,5 km/h (4 Bft) 97,87 %
15.03.2023 04:46 2,4 C 1,7 C -1,1 C 94 % 1014,0 hPa 0,0 l/m 0 min 2 min 0 W/m 16,1 km/h (3 Bft) 98,15 %
15.03.2023 04:48 2,4 C 1,7 C -1,1 C 95 % 1014,0 hPa 0,0 l/m 0 min 2 min 0 W/m 6,4 km/h (2 Bft) 97,92 %
15.03.2023 04:50 2,4 C 1,7 C -1,1 C 95 % 1014,0 hPa 0,0 l/m 0 min 2 min 0 W/m 12,9 km/h (3 Bft) 95,74 %
15.03.2023 04:52 2,4 C 1,7 C -1,1 C 95 % 1014,1 hPa 0,0 l/m 0 min 2 min 0 W/m 12,9 km/h (3 Bft) 97,87 %
15.03.2023 04:54 2,4 C 1,7 C -1,1 C 95 % 1014,2 hPa 0,0 l/m 0 min 2 min 0 W/m 12,9 km/h (3 Bft) 94,00 %
15.03.2023 04:56 2,4 C 1,7 C -1,1 C 95 % 1014,2 hPa 0,0 l/m 0 min 2 min 0 W/m 16,1 km/h (3 Bft) 95,65 %
15.03.2023 04:58 2,4 C 1,7 C -1,1 C 95 % 1014,2 hPa 0,2 l/m 0 min 2 min 0 W/m 16,1 km/h (3 Bft) 97,87 %
15.03.2023 05:00 2,4 C 1,7 C -1,1 C 95 % 1014,2 hPa 0,0 l/m 0 min 2 min 0 W/m 12,9 km/h (3 Bft) 97,87 %
15.03.2023 05:02 2,4 C 1,7 C -1,7 C 95 % 1014,3 hPa 0,0 l/m 0 min 2 min 0 W/m 12,9 km/h (3 Bft) 97,87 %
15.03.2023 05:04 2,4 C 1,7 C -1,7 C 95 % 1014,4 hPa 0,0 l/m 0 min 2 min 0 W/m 9,7 km/h (2 Bft) 97,87 %
15.03.2023 05:06 2,3 C 1,7 C -1,7 C 95 % 1014,4 hPa 0,2 l/m 0 min 2 min 0 W/m 12,9 km/h (3 Bft) 97,87 %
15.03.2023 05:08 2,3 C 1,7 C -1,7 C 95 % 1014,4 hPa 0,0 l/m 0 min 2 min 0 W/m 12,9 km/h (3 Bft) 95,74 %
15.03.2023 05:10 2,3 C 1,7 C -1,7 C 95 % 1014,5 hPa 0,0 l/m 0 min 2 min 0 W/m 12,9 km/h (3 Bft) 95,65 %
15.03.2023 05:12 2,2 C 1,7 C -1,7 C 95 % 1014,5 hPa 0,0 l/m 0 min 2 min 0 W/m 12,9 km/h (3 Bft) 95,74 %
15.03.2023 05:14 2,2 C 1,7 C -1,7 C 95 % 1014,5 hPa 0,0 l/m 0 min 2 min 0 W/m 12,9 km/h (3 Bft) 95,74 %
15.03.2023 05:16 2,2 C 1,7 C -1,7 C 95 % 1014,5 hPa 0,0 l/m 0 min 2 min 0 W/m 6,4 km/h (2 Bft) 95,74 %
15.03.2023 05:18 2,2 C 1,7 C -1,7 C 95 % 1014,6 hPa 0,0 l/m 0 min 2 min 0 W/m 6,4 km/h (2 Bft) 97,87 %
15.03.2023 05:20 2,2 C 1,7 C -1,1 C 95 % 1014,6 hPa 0,0 l/m 0 min 0 min 0 W/m 12,9 km/h (3 Bft) 97,87 %
15.03.2023 05:22 2,2 C 1,7 C -1,1 C 95 % 1014,5 hPa 0,0 l/m 0 min 0 min 0 W/m 6,4 km/h (2 Bft) 95,65 %
15.03.2023 05:24 2,2 C 1,7 C -1,1 C 95 % 1014,6 hPa 0,0 l/m 0 min 0 min 0 W/m 12,9 km/h (3 Bft) 97,87 %
15.03.2023 05:26 2,2 C 1,7 C -1,1 C 95 % 1014,6 hPa 0,0 l/m 0 min 0 min 0 W/m 6,4 km/h (2 Bft) 97,87 %
15.03.2023 05:28 2,2 C 1,7 C -1,7 C 95 % 1014,6 hPa 0,0 l/m 0 min 0 min 0 W/m 9,7 km/h (2 Bft) 97,87 %
15.03.2023 05:30 2,2 C 1,7 C -1,7 C 95 % 1014,7 hPa 0,0 l/m 0 min 0 min 0 W/m 9,7 km/h (2 Bft) 95,74 %
15.03.2023 05:32 2,1 C 1,7 C -1,7 C 95 % 1014,6 hPa 0,0 l/m 0 min 0 min 0 W/m 12,9 km/h (3 Bft) 97,87 %
15.03.2023 05:34 2,1 C 1,7 C -1,7 C 95 % 1014,7 hPa 0,0 l/m 0 min 0 min 0 W/m 6,4 km/h (2 Bft) 97,87 %
15.03.2023 05:36 2,1 C 1,7 C -1,7 C 95 % 1014,6 hPa 0,0 l/m 0 min 0 min 0 W/m 6,4 km/h (2 Bft) 100,00 %
15.03.2023 05:38 2,1 C 1,7 C -1,7 C 95 % 1014,6 hPa 0,0 l/m 0 min 0 min 0 W/m 9,7 km/h (2 Bft) 100,00 %
15.03.2023 05:40 2,1 C 1,7 C -1,7 C 95 % 1014,6 hPa 0,0 l/m 0 min 0 min 0 W/m 9,7 km/h (2 Bft) 100,00 %
15.03.2023 05:42 2,1 C 1,1 C -1,7 C 95 % 1014,6 hPa 0,0 l/m 0 min 0 min 0 W/m 6,4 km/h (2 Bft) 95,74 %
15.03.2023 05:44 2,1 C 1,7 C -1,7 C 95 % 1014,7 hPa 0,0 l/m 0 min 0 min 0 W/m 3,2 km/h (1 Bft) 97,87 %
15.03.2023 05:46 2,1 C 1,7 C -1,7 C 95 % 1014,8 hPa 0,0 l/m 0 min 0 min 0 W/m 6,4 km/h (2 Bft) 97,87 %
15.03.2023 05:48 2,1 C 1,7 C -1,7 C 95 % 1014,8 hPa 0,0 l/m 0 min 0 min 0 W/m 9,7 km/h (2 Bft) 97,87 %
15.03.2023 05:50 2,1 C 1,7 C -1,7 C 95 % 1014,9 hPa 0,0 l/m 0 min 0 min 0 W/m 9,7 km/h (2 Bft) 97,87 %
15.03.2023 05:52 2,1 C 1,7 C -1,7 C 95 % 1014,9 hPa 0,0 l/m 0 min 0 min 0 W/m 6,4 km/h (2 Bft) 91,84 %
15.03.2023 05:54 2,0 C 1,7 C -1,7 C 95 % 1014,9 hPa 0,0 l/m 0 min 0 min 0 W/m 6,4 km/h (2 Bft) 95,74 %
15.03.2023 05:56 2,0 C 1,7 C -1,7 C 95 % 1015,0 hPa 0,0 l/m 0 min 0 min 0 W/m 6,4 km/h (2 Bft) 97,87 %
15.03.2023 05:58 2,0 C 1,1 C -1,7 C 95 % 1015,0 hPa 0,0 l/m 0 min 0 min 0 W/m 6,4 km/h (2 Bft) 95,74 %
15.03.2023 06:00 2,0 C 1,7 C -1,7 C 95 % 1015,0 hPa 0,0 l/m 0 min 0 min 0 W/m 6,4 km/h (2 Bft) 97,87 %
15.03.2023 06:02 2,0 C 1,1 C -1,7 C 96 % 1015,1 hPa 0,0 l/m 0 min 0 min 0 W/m 9,7 km/h (2 Bft) 95,74 %
15.03.2023 06:04 2,0 C 1,1 C -1,7 C 96 % 1015,1 hPa 0,0 l/m 0 min 0 min 0 W/m 9,7 km/h (2 Bft) 97,83 %
15.03.2023 06:07 2,0 C 1,1 C -1,7 C 96 % 1015,1 hPa 0,0 l/m 0 min 0 min 0 W/m 9,7 km/h (2 Bft) 97,18 %
15.03.2023 06:08 2,0 C 1,1 C -1,7 C 96 % 1015,1 hPa 0,0 l/m 0 min 0 min 0 W/m 6,4 km/h (2 Bft) 100,00 %
15.03.2023 06:12 2,0 C 1,1 C -1,7 C 96 % 1015,1 hPa 0,0 l/m 0 min 0 min 0 W/m 9,7 km/h (2 Bft) 96,43 %
15.03.2023 06:14 2,0 C 1,7 C -1,7 C 96 % 1015,1 hPa 0,0 l/m 0 min 0 min 0 W/m 6,4 km/h (2 Bft) 95,74 %
15.03.2023 06:16 2,0 C 1,7 C -1,7 C 96 % 1015,2 hPa 0,0 l/m 0 min 0 min 0 W/m 6,4 km/h (2 Bft) 97,87 %
15.03.2023 06:18 2,0 C 1,7 C -1,7 C 96 % 1015,2 hPa 0,0 l/m 0 min 0 min 0 W/m 6,4 km/h (2 Bft) 97,87 %
15.03.2023 06:20 2,0 C 1,7 C -1,7 C 96 % 1015,2 hPa 0,0 l/m 0 min 0 min 0 W/m 6,4 km/h (2 Bft) 93,62 %
15.03.2023 06:22 2,0 C 1,7 C -1,7 C 96 % 1015,3 hPa 0,0 l/m 0 min 0 min 0 W/m 6,4 km/h (2 Bft) 97,83 %
15.03.2023 06:24 2,0 C 1,7 C -1,7 C 96 % 1015,3 hPa 0,0 l/m 0 min 0 min 0 W/m 6,4 km/h (2 Bft) 97,87 %
15.03.2023 06:26 2,0 C 1,7 C -1,7 C 96 % 1015,3 hPa 0,0 l/m 0 min 0 min 0 W/m 6,4 km/h (2 Bft) 95,74 %
15.03.2023 06:28 2,0 C 1,7 C -1,7 C 96 % 1015,4 hPa 0,0 l/m 0 min 0 min 0 W/m 9,7 km/h (2 Bft) 96,00 %
15.03.2023 06:30 2,0 C 1,7 C -1,7 C 96 % 1015,4 hPa 0,0 l/m 0 min 0 min 0 W/m 6,4 km/h (2 Bft) 95,65 %
15.03.2023 06:32 2,0 C 1,7 C -1,7 C 96 % 1015,4 hPa 0,0 l/m 0 min 0 min 0 W/m 6,4 km/h (2 Bft) 97,87 %
15.03.2023 06:34 2,0 C 1,7 C -1,7 C 96 % 1015,4 hPa 0,0 l/m 0 min 0 min 0 W/m 6,4 km/h (2 Bft) 95,74 %
15.03.2023 06:36 2,0 C 1,7 C -1,7 C 96 % 1015,5 hPa 0,0 l/m 0 min 0 min 0 W/m 9,7 km/h (2 Bft) 97,87 %
15.03.2023 06:38 2,0 C 1,7 C -1,7 C 96 % 1015,5 hPa 0,0 l/m 0 min 0 min 0 W/m 3,2 km/h (1 Bft) 97,87 %
15.03.2023 06:40 2,0 C 1,7 C -1,7 C 96 % 1015,5 hPa 0,0 l/m 0 min 0 min 0 W/m 9,7 km/h (2 Bft) 97,87 %
15.03.2023 06:42 2,0 C 1,7 C -1,7 C 96 % 1015,5 hPa 0,0 l/m 0 min 0 min 0 W/m 6,4 km/h (2 Bft) 100,00 %
15.03.2023 06:44 2,0 C 1,7 C -1,7 C 96 % 1015,5 hPa 0,0 l/m 0 min 0 min 0 W/m 12,9 km/h (3 Bft) 97,83 %
15.03.2023 06:46 2,0 C 1,7 C -1,1 C 96 % 1015,5 hPa 0,0 l/m 0 min 0 min 0 W/m 6,4 km/h (2 Bft) 100,00 %
15.03.2023 06:48 2,1 C 1,7 C -1,7 C 96 % 1015,6 hPa 0,0 l/m 0 min 0 min 0 W/m 6,4 km/h (2 Bft) 97,87 %
15.03.2023 06:50 2,1 C 1,7 C -1,7 C 96 % 1015,6 hPa 0,0 l/m 0 min 0 min 0 W/m 6,4 km/h (2 Bft) 100,00 %
15.03.2023 06:52 2,1 C 1,7 C -1,7 C 96 % 1015,6 hPa 0,0 l/m 0 min 0 min 0 W/m 6,4 km/h (2 Bft) 95,74 %
15.03.2023 06:54 2,1 C 1,7 C -1,7 C 96 % 1015,6 hPa 0,0 l/m 0 min 0 min 0 W/m 9,7 km/h (2 Bft) 95,74 %
15.03.2023 06:56 2,1 C 1,7 C -1,7 C 96 % 1015,6 hPa 0,0 l/m 0 min 0 min 0 W/m 9,7 km/h (2 Bft) 97,83 %
15.03.2023 06:58 2,1 C 1,7 C -1,1 C 96 % 1015,6 hPa 0,0 l/m 0 min 0 min 0 W/m 3,2 km/h (1 Bft) 93,62 %
15.03.2023 07:00 2,1 C 1,7 C -1,1 C 96 % 1015,7 hPa 0,0 l/m 0 min 0 min 0 W/m 6,4 km/h (2 Bft) 97,87 %
15.03.2023 07:02 2,1 C 1,7 C -1,1 C 96 % 1015,8 hPa 0,0 l/m 0 min 0 min 0 W/m 6,4 km/h (2 Bft) 95,74 %
15.03.2023 07:04 2,1 C 1,7 C -1,1 C 96 % 1015,8 hPa 0,0 l/m 0 min 0 min 0 W/m 3,2 km/h (1 Bft) 95,74 %
15.03.2023 07:06 2,2 C 1,7 C -1,1 C 96 % 1015,8 hPa 0,0 l/m 0 min 0 min 0 W/m 6,4 km/h (2 Bft) 95,74 %
15.03.2023 07:08 2,2 C 1,7 C -1,1 C 96 % 1015,8 hPa 0,0 l/m 0 min 0 min 0 W/m 6,4 km/h (2 Bft) 93,62 %
15.03.2023 07:10 2,2 C 1,7 C -1,1 C 96 % 1015,9 hPa 0,0 l/m 0 min 0 min 3 W/m 6,4 km/h (2 Bft) 95,65 %
15.03.2023 07:12 2,2 C 1,7 C -1,1 C 96 % 1015,9 hPa 0,0 l/m 0 min 0 min 5 W/m 9,7 km/h (2 Bft) 91,49 %
15.03.2023 07:14 2,2 C 1,7 C -1,1 C 96 % 1015,9 hPa 0,0 l/m 0 min 0 min 7 W/m 12,9 km/h (3 Bft) 95,74 %
15.03.2023 07:16 2,2 C 1,7 C -1,1 C 96 % 1016,0 hPa 0,0 l/m 0 min 0 min 9 W/m 6,4 km/h (2 Bft) 93,62 %
15.03.2023 07:18 2,2 C 1,7 C -1,1 C 96 % 1016,0 hPa 0,0 l/m 0 min 0 min 12 W/m 6,4 km/h (2 Bft) 95,74 %
15.03.2023 07:20 2,2 C 1,7 C -1,1 C 96 % 1016,0 hPa 0,0 l/m 0 min 0 min 10 W/m 3,2 km/h (1 Bft) 100,00 %
15.03.2023 07:22 2,2 C 1,7 C -1,1 C 96 % 1015,9 hPa 0,0 l/m 0 min 0 min 10 W/m 6,4 km/h (2 Bft) 97,83 %
15.03.2023 07:24 2,2 C 1,7 C -1,1 C 96 % 1016,0 hPa 0,0 l/m 0 min 0 min 12 W/m 6,4 km/h (2 Bft) 97,87 %
15.03.2023 07:26 2,2 C 1,7 C -1,1 C 96 % 1016,0 hPa 0,0 l/m 0 min 0 min 12 W/m 0,0 km/h (0 Bft) 95,74 %
15.03.2023 07:28 2,2 C 1,7 C -1,1 C 96 % 1016,1 hPa 0,0 l/m 0 min 0 min 14 W/m 3,2 km/h (1 Bft) 97,87 %
15.03.2023 07:30 2,2 C 1,7 C -1,1 C 96 % 1016,1 hPa 0,0 l/m 0 min 0 min 16 W/m 3,2 km/h (1 Bft) 97,87 %
15.03.2023 07:32 2,2 C 2,2 C -1,1 C 96 % 1016,1 hPa 0,0 l/m 0 min 0 min 14 W/m 3,2 km/h (1 Bft) 97,87 %
15.03.2023 07:34 2,3 C 1,7 C -1,1 C 96 % 1016,1 hPa 0,0 l/m 0 min 0 min 13 W/m 9,7 km/h (2 Bft) 97,83 %
15.03.2023 07:36 2,3 C 2,2 C -1,1 C 96 % 1016,2 hPa 0,0 l/m 0 min 0 min 13 W/m 9,7 km/h (2 Bft) 97,87 %
15.03.2023 07:38 2,3 C 2,2 C -1,1 C 96 % 1016,2 hPa 0,0 l/m 0 min 0 min 18 W/m 6,4 km/h (2 Bft) 97,87 %
15.03.2023 07:40 2,3 C 2,2 C -1,1 C 96 % 1016,3 hPa 0,0 l/m 0 min 0 min 19 W/m 3,2 km/h (1 Bft) 97,87 %
15.03.2023 07:42 2,3 C 2,2 C -1,1 C 96 % 1016,3 hPa 0,0 l/m 0 min 0 min 15 W/m 0,0 km/h (0 Bft) 93,62 %
15.03.2023 07:44 2,3 C 2,2 C -1,1 C 96 % 1016,3 hPa 0,0 l/m 0 min 0 min 13 W/m 3,2 km/h (1 Bft) 100,00 %
15.03.2023 07:46 2,3 C 2,2 C -1,1 C 96 % 1016,5 hPa 0,0 l/m 0 min 0 min 20 W/m 3,2 km/h (1 Bft) 100,00 %
15.03.2023 07:48 2,3 C 2,2 C -1,1 C 96 % 1016,5 hPa 0,0 l/m 0 min 0 min 28 W/m 6,4 km/h (2 Bft) 100,00 %
15.03.2023 07:50 2,4 C 2,2 C -1,1 C 96 % 1016,6 hPa 0,0 l/m 0 min 0 min 29 W/m 9,7 km/h (2 Bft) 100,00 %
15.03.2023 07:52 2,4 C 2,2 C -1,1 C 96 % 1016,5 hPa 0,0 l/m 0 min 0 min 26 W/m 6,4 km/h (2 Bft) 100,00 %
15.03.2023 07:54 2,4 C 2,2 C -1,1 C 96 % 1016,6 hPa 0,0 l/m 0 min 0 min 27 W/m 6,4 km/h (2 Bft) 100,00 %
15.03.2023 07:56 2,4 C 2,2 C -1,1 C 96 % 1016,6 hPa 0,0 l/m 0 min 0 min 35 W/m 3,2 km/h (1 Bft) 100,00 %
15.03.2023 07:58 2,4 C 2,2 C -1,1 C 96 % 1016,6 hPa 0,0 l/m 0 min 0 min 36 W/m 3,2 km/h (1 Bft) 100,00 %
15.03.2023 08:00 2,4 C 2,2 C -1,1 C 96 % 1016,6 hPa 0,0 l/m 0 min 0 min 35 W/m 6,4 km/h (2 Bft) 100,00 %
15.03.2023 08:02 2,4 C 2,2 C -0,6 C 96 % 1016,7 hPa 0,0 l/m 0 min 0 min 38 W/m 6,4 km/h (2 Bft) 93,62 %
15.03.2023 08:04 2,5 C 2,2 C -1,1 C 97 % 1016,8 hPa 0,0 l/m 0 min 0 min 36 W/m 3,2 km/h (1 Bft) 100,00 %
15.03.2023 08:06 2,5 C 2,2 C -1,1 C 97 % 1016,8 hPa 0,0 l/m 0 min 0 min 38 W/m 6,4 km/h (2 Bft) 97,87 %
15.03.2023 08:08 2,5 C 2,2 C -0,6 C 97 % 1016,9 hPa 0,0 l/m 0 min 0 min 39 W/m 3,2 km/h (1 Bft) 100,00 %
15.03.2023 08:10 2,5 C 2,2 C -0,6 C 97 % 1016,9 hPa 0,0 l/m 0 min 0 min 38 W/m 3,2 km/h (1 Bft) 100,00 %
15.03.2023 08:12 2,6 C 2,2 C -0,6 C 97 % 1017,0 hPa 0,0 l/m 0 min 0 min 36 W/m 6,4 km/h (2 Bft) 100,00 %
15.03.2023 08:14 2,6 C 2,2 C -0,6 C 97 % 1017,0 hPa 0,0 l/m 0 min 0 min 33 W/m 6,4 km/h (2 Bft) 100,00 %
15.03.2023 08:16 2,6 C 2,2 C -0,6 C 97 % 1017,1 hPa 0,0 l/m 0 min 0 min 34 W/m 3,2 km/h (1 Bft) 97,87 %
15.03.2023 08:18 2,6 C 2,2 C -0,6 C 97 % 1017,1 hPa 0,0 l/m 0 min 0 min 44 W/m 6,4 km/h (2 Bft) 100,00 %
15.03.2023 08:20 2,6 C 2,8 C -0,6 C 97 % 1017,1 hPa 0,0 l/m 0 min 0 min 55 W/m 3,2 km/h (1 Bft) 100,00 %
15.03.2023 08:22 2,6 C 2,8 C -0,6 C 97 % 1017,1 hPa 0,0 l/m 0 min 0 min 58 W/m 3,2 km/h (1 Bft) 97,87 %
15.03.2023 08:24 2,6 C 2,8 C -0,6 C 97 % 1017,1 hPa 0,0 l/m 0 min 0 min 69 W/m 3,2 km/h (1 Bft) 100,00 %
15.03.2023 08:26 2,7 C 2,8 C -0,6 C 97 % 1017,2 hPa 0,0 l/m 0 min 0 min 71 W/m 3,2 km/h (1 Bft) 100,00 %
15.03.2023 08:28 2,7 C 2,8 C -0,6 C 97 % 1017,2 hPa 0,0 l/m 0 min 0 min 101 W/m 0,0 km/h (0 Bft) 100,00 %
15.03.2023 08:30 2,7 C 2,8 C -0,6 C 97 % 1017,2 hPa 0,0 l/m 0 min 0 min 94 W/m 9,7 km/h (2 Bft) 95,74 %
15.03.2023 08:32 2,7 C 2,8 C -0,6 C 97 % 1017,2 hPa 0,0 l/m 0 min 0 min 70 W/m 9,7 km/h (2 Bft) 97,87 %
15.03.2023 08:34 2,7 C 2,8 C -0,6 C 97 % 1017,2 hPa 0,0 l/m 0 min 0 min 66 W/m 6,4 km/h (2 Bft) 100,00 %
15.03.2023 08:36 2,8 C 2,8 C -0,6 C 97 % 1017,3 hPa 0,0 l/m 0 min 0 min 65 W/m 6,4 km/h (2 Bft) 97,87 %
15.03.2023 08:38 2,8 C 2,8 C -0,6 C 97 % 1017,3 hPa 0,0 l/m 0 min 0 min 70 W/m 6,4 km/h (2 Bft) 95,74 %
15.03.2023 08:40 2,8 C 2,8 C -0,6 C 97 % 1017,3 hPa 0,0 l/m 0 min 0 min 66 W/m 9,7 km/h (2 Bft) 97,83 %
15.03.2023 08:42 2,8 C 2,8 C -0,6 C 97 % 1017,4 hPa 0,0 l/m 0 min 0 min 67 W/m 9,7 km/h (2 Bft) 97,87 %
15.03.2023 08:44 2,8 C 2,8 C -0,6 C 97 % 1017,4 hPa 0,0 l/m 0 min 0 min 74 W/m 3,2 km/h (1 Bft) 97,87 %
15.03.2023 08:46 2,8 C 2,8 C -0,6 C 96 % 1017,4 hPa 0,0 l/m 0 min 0 min 80 W/m 3,2 km/h (1 Bft) 97,87 %
15.03.2023 08:48 2,8 C 3,3 C 0,0 C 96 % 1017,4 hPa 0,0 l/m 0 min 0 min 72 W/m 6,4 km/h (2 Bft) 97,87 %
15.03.2023 08:50 2,8 C 3,3 C -0,6 C 96 % 1017,4 hPa 0,0 l/m 0 min 0 min 77 W/m 9,7 km/h (2 Bft) 97,87 %
15.03.2023 08:52 2,8 C 3,3 C 0,0 C 96 % 1017,5 hPa 0,0 l/m 0 min 0 min 106 W/m 6,4 km/h (2 Bft) 97,83 %
15.03.2023 08:54 2,9 C 3,3 C 0,0 C 97 % 1017,5 hPa 0,0 l/m 0 min 0 min 121 W/m 6,4 km/h (2 Bft) 93,62 %
15.03.2023 08:56 2,9 C 3,3 C 0,0 C 97 % 1017,5 hPa 0,0 l/m 0 min 0 min 113 W/m 6,4 km/h (2 Bft) 97,87 %
15.03.2023 08:58 2,9 C 3,3 C 0,0 C 97 % 1017,6 hPa 0,0 l/m 0 min 0 min 118 W/m 6,4 km/h (2 Bft) 95,74 %
15.03.2023 09:00 3,0 C 3,9 C 0,0 C 97 % 1017,7 hPa 0,0 l/m 0 min 0 min 136 W/m 12,9 km/h (3 Bft) 93,62 %
15.03.2023 09:02 3,0 C 3,9 C 0,0 C 97 % 1017,7 hPa 0,0 l/m 0 min 0 min 146 W/m 6,4 km/h (2 Bft) 95,74 %
15.03.2023 09:04 3,1 C 3,9 C 0,0 C 96 % 1017,8 hPa 0,0 l/m 0 min 0 min 158 W/m 3,2 km/h (1 Bft) 95,74 %
15.03.2023 09:06 3,1 C 3,9 C 0,0 C 96 % 1017,8 hPa 0,0 l/m 0 min 0 min 144 W/m 12,9 km/h (3 Bft) 93,48 %
15.03.2023 09:08 3,1 C 3,9 C 0,6 C 96 % 1017,8 hPa 0,0 l/m 0 min 0 min 164 W/m 9,7 km/h (2 Bft) 93,62 %
15.03.2023 09:10 3,1 C 4,4 C 0,6 C 96 % 1017,9 hPa 0,0 l/m 0 min 0 min 163 W/m 9,7 km/h (2 Bft) 97,87 %
15.03.2023 09:12 3,2 C 4,4 C 0,6 C 96 % 1017,9 hPa 0,0 l/m 0 min 0 min 124 W/m 6,4 km/h (2 Bft) 95,74 %
15.03.2023 09:14 3,2 C 3,9 C 0,6 C 96 % 1017,9 hPa 0,0 l/m 0 min 0 min 113 W/m 6,4 km/h (2 Bft) 97,87 %
15.03.2023 09:16 3,3 C 3,9 C 0,6 C 96 % 1017,9 hPa 0,0 l/m 0 min 0 min 103 W/m 9,7 km/h (2 Bft) 93,62 %
15.03.2023 09:18 3,3 C 3,9 C 0,6 C 96 % 1018,0 hPa 0,0 l/m 0 min 0 min 89 W/m 6,4 km/h (2 Bft) 93,48 %
15.03.2023 09:20 3,3 C 3,9 C 0,6 C 96 % 1018,0 hPa 0,0 l/m 0 min 0 min 86 W/m 9,7 km/h (2 Bft) 95,74 %
15.03.2023 09:22 3,3 C 3,9 C 0,6 C 96 % 1018,0 hPa 0,0 l/m 0 min 0 min 99 W/m 9,7 km/h (2 Bft) 97,87 %
15.03.2023 09:24 3,3 C 3,3 C 0,0 C 96 % 1018,1 hPa 0,0 l/m 0 min 0 min 115 W/m 9,7 km/h (2 Bft) 95,74 %
15.03.2023 09:26 3,3 C 3,3 C 0,0 C 96 % 1018,2 hPa 0,0 l/m 0 min 0 min 129 W/m 6,4 km/h (2 Bft) 95,74 %
15.03.2023 09:28 3,3 C 3,9 C 0,6 C 96 % 1018,2 hPa 0,0 l/m 0 min 0 min 141 W/m 6,4 km/h (2 Bft) 97,87 %
15.03.2023 09:30 3,3 C 3,9 C 0,6 C 96 % 1018,2 hPa 0,0 l/m 0 min 0 min 165 W/m 6,4 km/h (2 Bft) 97,83 %
15.03.2023 09:32 3,3 C 5,0 C 0,6 C 96 % 1018,2 hPa 0,0 l/m 2 min 0 min 213 W/m 9,7 km/h (2 Bft) 95,74 %
15.03.2023 09:34 3,4 C 6,7 C 0,6 C 96 % 1018,2 hPa 0,0 l/m 2 min 0 min 236 W/m 6,4 km/h (2 Bft) 95,74 %
15.03.2023 09:36 3,5 C 8,3 C 1,1 C 96 % 1018,3 hPa 0,0 l/m 2 min 0 min 284 W/m 6,4 km/h (2 Bft) 95,74 %
15.03.2023 09:38 3,6 C 8,9 C 1,1 C 96 % 1018,3 hPa 0,0 l/m 2 min 0 min 263 W/m 3,2 km/h (1 Bft) 93,62 %
15.03.2023 09:40 3,8 C 7,8 C 1,1 C 96 % 1018,3 hPa 0,0 l/m 0 min 0 min 164 W/m 9,7 km/h (2 Bft) 95,74 %
15.03.2023 09:42 3,8 C 6,7 C 1,1 C 96 % 1018,3 hPa 0,0 l/m 0 min 0 min 105 W/m 6,4 km/h (2 Bft) 95,74 %
15.03.2023 09:44 3,9 C 5,6 C 1,1 C 95 % 1018,4 hPa 0,0 l/m 0 min 0 min 130 W/m 6,4 km/h (2 Bft) 95,65 %
15.03.2023 09:46 3,9 C 6,1 C 1,1 C 95 % 1018,4 hPa 0,0 l/m 0 min 0 min 181 W/m 3,2 km/h (1 Bft) 93,62 %
15.03.2023 09:48 3,9 C 7,2 C 1,1 C 95 % 1018,3 hPa 0,0 l/m 2 min 0 min 225 W/m 6,4 km/h (2 Bft) 97,87 %
15.03.2023 09:50 4,0 C 8,9 C 1,7 C 95 % 1018,4 hPa 0,0 l/m 2 min 0 min 354 W/m 9,7 km/h (2 Bft) 95,74 %
15.03.2023 09:52 4,1 C 8,9 C 1,7 C 95 % 1018,4 hPa 0,0 l/m 2 min 0 min 379 W/m 12,9 km/h (3 Bft) 95,74 %
15.03.2023 09:54 4,2 C 7,2 C 1,7 C 95 % 1018,4 hPa 0,0 l/m 2 min 0 min 298 W/m 0,0 km/h (0 Bft) 95,74 %
15.03.2023 09:56 4,2 C 6,7 C 1,7 C 94 % 1018,6 hPa 0,0 l/m 0 min 0 min 155 W/m 0,0 km/h (0 Bft) 97,83 %
15.03.2023 09:58 4,2 C 6,7 C 1,7 C 94 % 1018,5 hPa 0,0 l/m 0 min 0 min 152 W/m 0,0 km/h (0 Bft) 97,87 %
15.03.2023 10:00 4,3 C 7,2 C 1,7 C 94 % 1018,6 hPa 0,0 l/m 2 min 0 min 230 W/m 0,0 km/h (0 Bft) 95,74 %
15.03.2023 10:02 4,3 C 7,2 C 1,7 C 93 % 1018,6 hPa 0,0 l/m 2 min 0 min 282 W/m 0,0 km/h (0 Bft) 95,74 %
15.03.2023 10:04 4,3 C 7,8 C 2,2 C 93 % 1018,6 hPa 0,0 l/m 2 min 0 min 301 W/m 0,0 km/h (0 Bft) 97,87 %
15.03.2023 10:06 4,4 C 8,9 C 2,2 C 93 % 1018,6 hPa 0,0 l/m 2 min 0 min 274 W/m 9,7 km/h (2 Bft) 98,11 %
15.03.2023 10:08 4,6 C 9,4 C 2,2 C 93 % 1018,6 hPa 0,0 l/m 2 min 0 min 261 W/m 9,7 km/h (2 Bft) 95,74 %
15.03.2023 10:10 4,6 C 8,3 C 1,7 C 93 % 1018,6 hPa 0,0 l/m 0 min 0 min 214 W/m 6,4 km/h (2 Bft) 97,14 %
15.03.2023 10:12 4,6 C 6,7 C 1,7 C 92 % 1018,6 hPa 0,0 l/m 0 min 0 min 126 W/m 6,4 km/h (2 Bft) 93,62 %
15.03.2023 10:14 4,6 C 6,1 C 1,7 C 92 % 1018,6 hPa 0,0 l/m 0 min 0 min 144 W/m 3,2 km/h (1 Bft) 95,74 %
15.03.2023 10:16 4,6 C 5,6 C 1,7 C 91 % 1018,6 hPa 0,0 l/m 0 min 0 min 151 W/m 9,7 km/h (2 Bft) 95,65 %
15.03.2023 10:18 4,6 C 5,0 C 1,1 C 91 % 1018,7 hPa 0,0 l/m 0 min 0 min 117 W/m 6,4 km/h (2 Bft) 96,23 %
15.03.2023 10:20 4,6 C 5,0 C 1,7 C 90 % 1018,7 hPa 0,0 l/m 0 min 0 min 133 W/m 6,4 km/h (2 Bft) 97,87 %
15.03.2023 10:22 4,6 C 5,0 C 1,7 C 90 % 1018,8 hPa 0,0 l/m 0 min 0 min 139 W/m 6,4 km/h (2 Bft) 54,35 %
15.03.2023 10:24 4,6 C 7,2 C 2,2 C 90 % 1018,8 hPa 0,0 l/m 0 min 0 min 195 W/m 3,2 km/h (1 Bft) 97,73 %
15.03.2023 10:26 4,7 C 9,4 C 3,3 C 90 % 1018,8 hPa 0,0 l/m 2 min 0 min 471 W/m 3,2 km/h (1 Bft) 97,87 %
15.03.2023 10:28 4,8 C 11,7 C 5,0 C 90 % 1018,8 hPa 0,0 l/m 2 min 0 min 396 W/m 6,4 km/h (2 Bft) 95,74 %
15.03.2023 10:30 5,0 C 14,4 C 5,6 C 90 % 1018,8 hPa 0,0 l/m 2 min 0 min 366 W/m 6,4 km/h (2 Bft) 95,74 %
15.03.2023 10:32 5,1 C 15,6 C 6,1 C 90 % 1018,8 hPa 0,0 l/m 2 min 0 min 534 W/m 6,4 km/h (2 Bft) 93,62 %
15.03.2023 10:34 5,2 C 13,9 C 6,1 C 89 % 1018,8 hPa 0,0 l/m 2 min 0 min 538 W/m 3,2 km/h (1 Bft) 93,48 %
15.03.2023 10:36 5,4 C 12,2 C 5,6 C 89 % 1018,8 hPa 0,0 l/m 2 min 0 min 297 W/m 6,4 km/h (2 Bft) 89,36 %
15.03.2023 10:38 5,6 C 11,7 C 5,6 C 88 % 1018,8 hPa 0,0 l/m 2 min 0 min 260 W/m 6,4 km/h (2 Bft) 95,74 %
15.03.2023 10:40 5,6 C 9,4 C 5,0 C 88 % 1018,9 hPa 0,0 l/m 0 min 0 min 218 W/m 9,7 km/h (2 Bft) 95,74 %
15.03.2023 10:42 5,6 C 8,9 C 4,4 C 87 % 1018,9 hPa 0,0 l/m 0 min 0 min 204 W/m 9,7 km/h (2 Bft) 95,74 %
15.03.2023 10:44 5,6 C 10,0 C 5,0 C 87 % 1018,9 hPa 0,0 l/m 0 min 0 min 221 W/m 6,4 km/h (2 Bft) 93,62 %
15.03.2023 10:46 5,7 C 9,4 C 5,0 C 87 % 1018,9 hPa 0,0 l/m 0 min 0 min 200 W/m 3,2 km/h (1 Bft) 95,65 %
15.03.2023 10:48 5,7 C 9,4 C 4,4 C 86 % 1018,9 hPa 0,0 l/m 0 min 0 min 137 W/m 9,7 km/h (2 Bft) 95,74 %
15.03.2023 10:50 5,7 C 11,1 C 5,6 C 86 % 1018,9 hPa 0,0 l/m 0 min 0 min 137 W/m 6,4 km/h (2 Bft) 95,74 %
15.03.2023 10:52 5,7 C 12,2 C 6,1 C 85 % 1018,8 hPa 0,0 l/m 0 min 0 min 184 W/m 3,2 km/h (1 Bft) 91,49 %
15.03.2023 10:54 5,8 C 15,0 C 7,2 C 85 % 1018,8 hPa 0,0 l/m 2 min 0 min 591 W/m 3,2 km/h (1 Bft) 91,49 %
15.03.2023 10:56 6,0 C 16,7 C 8,3 C 85 % 1018,8 hPa 0,0 l/m 2 min 0 min 598 W/m 3,2 km/h (1 Bft) 95,74 %
15.03.2023 10:58 6,1 C 17,2 C 9,4 C 84 % 1018,9 hPa 0,0 l/m 2 min 0 min 603 W/m 3,2 km/h (1 Bft) 93,62 %
15.03.2023 11:00 6,3 C 18,3 C 9,4 C 84 % 1018,8 hPa 0,0 l/m 2 min 0 min 642 W/m 6,4 km/h (2 Bft) 97,83 %
15.03.2023 11:02 6,5 C 19,4 C 10,0 C 83 % 1018,8 hPa 0,0 l/m 2 min 0 min 676 W/m 6,4 km/h (2 Bft) 93,62 %
15.03.2023 11:04 6,7 C 20,0 C 10,6 C 83 % 1018,9 hPa 0,0 l/m 2 min 0 min 669 W/m 6,4 km/h (2 Bft) 95,74 %
15.03.2023 11:06 6,8 C 19,4 C 11,1 C 82 % 1018,8 hPa 0,0 l/m 2 min 0 min 665 W/m 9,7 km/h (2 Bft) 97,87 %
15.03.2023 11:08 7,0 C 17,8 C 10,6 C 81 % 1018,9 hPa 0,0 l/m 2 min 0 min 469 W/m 9,7 km/h (2 Bft) 97,87 %
15.03.2023 11:10 7,1 C 14,4 C 7,8 C 80 % 1018,9 hPa 0,0 l/m 2 min 0 min 279 W/m 6,4 km/h (2 Bft) 97,87 %
15.03.2023 11:12 7,0 C 10,6 C 6,7 C 78 % 1018,9 hPa 0,0 l/m 0 min 0 min 118 W/m 9,7 km/h (2 Bft) 97,83 %
15.03.2023 11:14 6,9 C 9,4 C 5,6 C 78 % 1018,9 hPa 0,0 l/m 0 min 0 min 124 W/m 6,4 km/h (2 Bft) 95,74 %
15.03.2023 11:16 6,8 C 7,8 C 4,4 C 77 % 1018,9 hPa 0,0 l/m 0 min 0 min 140 W/m 3,2 km/h (1 Bft) 97,87 %
15.03.2023 11:18 6,6 C 7,2 C 3,9 C 77 % 1018,9 hPa 0,0 l/m 0 min 0 min 159 W/m 6,4 km/h (2 Bft) 95,74 %
15.03.2023 11:20 6,6 C 7,2 C 3,9 C 77 % 1018,9 hPa 0,0 l/m 0 min 0 min 189 W/m 6,4 km/h (2 Bft) 97,87 %
15.03.2023 11:22 6,5 C 7,2 C 3,9 C 78 % 1019,0 hPa 0,0 l/m 0 min 0 min 225 W/m 3,2 km/h (1 Bft) 95,74 %
15.03.2023 11:24 6,5 C 7,2 C 3,3 C 77 % 1019,0 hPa 0,0 l/m 0 min 0 min 230 W/m 6,4 km/h (2 Bft) 97,83 %
15.03.2023 11:26 6,5 C 7,2 C 3,3 C 78 % 1019,0 hPa 0,0 l/m 0 min 0 min 245 W/m 9,7 km/h (2 Bft) 97,87 %
15.03.2023 11:28 6,4 C 7,8 C 3,9 C 78 % 1019,1 hPa 0,0 l/m 0 min 0 min 259 W/m 9,7 km/h (2 Bft) 95,74 %
15.03.2023 11:30 6,4 C 10,6 C 5,0 C 78 % 1019,0 hPa 0,0 l/m 2 min 0 min 287 W/m 6,4 km/h (2 Bft) 97,87 %
15.03.2023 11:32 6,4 C 12,2 C 6,1 C 78 % 1019,1 hPa 0,0 l/m 2 min 0 min 714 W/m 6,4 km/h (2 Bft) 97,87 %
15.03.2023 11:34 6,5 C 11,1 C 5,6 C 78 % 1019,1 hPa 0,0 l/m 2 min 0 min 775 W/m 12,9 km/h (3 Bft) 95,74 %
15.03.2023 11:36 6,5 C 10,0 C 5,0 C 77 % 1019,1 hPa 0,0 l/m 2 min 0 min 598 W/m 3,2 km/h (1 Bft) 97,87 %
15.03.2023 11:38 6,5 C 10,6 C 5,6 C 77 % 1019,1 hPa 0,0 l/m 0 min 0 min 232 W/m 9,7 km/h (2 Bft) 97,83 %
15.03.2023 11:40 6,5 C 9,4 C 5,0 C 77 % 1019,1 hPa 0,0 l/m 0 min 0 min 201 W/m 6,4 km/h (2 Bft) 97,87 %
15.03.2023 11:42 6,5 C 9,4 C 4,4 C 77 % 1019,1 hPa 0,0 l/m 0 min 0 min 256 W/m 6,4 km/h (2 Bft) 97,87 %
15.03.2023 11:44 6,5 C 8,9 C 4,4 C 77 % 1019,0 hPa 0,0 l/m 0 min 0 min 174 W/m 3,2 km/h (1 Bft) 91,49 %
15.03.2023 11:46 6,5 C 11,1 C 4,4 C 77 % 1019,1 hPa 0,0 l/m 0 min 0 min 162 W/m 6,4 km/h (2 Bft) 95,74 %
15.03.2023 11:48 6,5 C 10,6 C 4,4 C 77 % 1019,1 hPa 0,0 l/m 0 min 0 min 134 W/m 6,4 km/h (2 Bft) 97,87 %
15.03.2023 11:50 6,5 C 9,4 C 3,9 C 76 % 1019,0 hPa 0,0 l/m 0 min 0 min 127 W/m 9,7 km/h (2 Bft) 97,87 %
15.03.2023 11:52 6,5 C 8,9 C 3,9 C 76 % 1019,0 hPa 0,0 l/m 0 min 0 min 132 W/m 3,2 km/h (1 Bft) 95,24 %
15.03.2023 11:54 6,5 C 8,3 C 3,3 C 75 % 1019,0 hPa 0,0 l/m 0 min 0 min 129 W/m 6,4 km/h (2 Bft) 97,87 %
15.03.2023 11:56 6,5 C 7,8 C 3,3 C 75 % 1019,0 hPa 0,0 l/m 0 min 0 min 150 W/m 3,2 km/h (1 Bft) 97,87 %
15.03.2023 11:58 6,5 C 8,3 C 3,3 C 75 % 1019,0 hPa 0,0 l/m 0 min 0 min 206 W/m 6,4 km/h (2 Bft) 97,83 %
15.03.2023 12:00 6,5 C 8,9 C 3,9 C 75 % 1019,1 hPa 0,0 l/m 0 min 0 min 206 W/m 6,4 km/h (2 Bft) 97,87 %
15.03.2023 12:02 6,5 C 8,3 C 3,9 C 74 % 1019,1 hPa 0,0 l/m 0 min 0 min 201 W/m 3,2 km/h (1 Bft) 93,62 %
15.03.2023 12:04 6,5 C 7,8 C 3,3 C 73 % 1019,1 hPa 0,0 l/m 0 min 0 min 197 W/m 6,4 km/h (2 Bft) 95,74 %
15.03.2023 12:07 6,6 C 7,8 C 3,3 C 73 % 1019,2 hPa 0,0 l/m 0 min 0 min 192 W/m 6,4 km/h (2 Bft) 93,06 %
15.03.2023 12:08 6,6 C 7,8 C 3,3 C 73 % 1019,2 hPa 0,0 l/m 0 min 0 min 191 W/m 3,2 km/h (1 Bft) 96,15 %
15.03.2023 12:12 6,6 C 7,2 C 3,3 C 71 % 1019,2 hPa 0,0 l/m 0 min 0 min 159 W/m 6,4 km/h (2 Bft) 94,55 %
15.03.2023 12:14 6,6 C 7,8 C 3,3 C 71 % 1019,2 hPa 0,0 l/m 0 min 0 min 151 W/m 0,0 km/h (0 Bft) 93,62 %
15.03.2023 12:16 6,6 C 7,2 C 3,3 C 71 % 1019,2 hPa 0,0 l/m 0 min 0 min 139 W/m 3,2 km/h (1 Bft) 93,48 %
15.03.2023 12:18 6,6 C 7,2 C 2,8 C 71 % 1019,3 hPa 0,0 l/m 0 min 2 min 124 W/m 9,7 km/h (2 Bft) 95,74 %
15.03.2023 12:20 6,6 C 6,7 C 2,8 C 71 % 1019,4 hPa 0,0 l/m 0 min 2 min 130 W/m 12,9 km/h (3 Bft) 93,62 %
15.03.2023 12:22 6,5 C 6,1 C 2,2 C 72 % 1019,5 hPa 0,0 l/m 0 min 2 min 152 W/m 6,4 km/h (2 Bft) 91,49 %
15.03.2023 12:24 6,4 C 6,1 C 2,2 C 74 % 1019,4 hPa 0,0 l/m 0 min 0 min 161 W/m 6,4 km/h (2 Bft) 95,74 %
15.03.2023 12:26 6,3 C 6,1 C 2,2 C 74 % 1019,5 hPa 0,0 l/m 0 min 0 min 149 W/m 6,4 km/h (2 Bft) 95,74 %
15.03.2023 12:28 6,3 C 6,1 C 2,2 C 74 % 1019,5 hPa 0,0 l/m 0 min 0 min 126 W/m 6,4 km/h (2 Bft) 95,74 %
15.03.2023 12:30 6,2 C 6,1 C 2,2 C 75 % 1019,5 hPa 0,0 l/m 0 min 0 min 113 W/m 3,2 km/h (1 Bft) 95,65 %
15.03.2023 12:32 6,2 C 6,1 C 2,2 C 75 % 1019,5 hPa 0,2 l/m 0 min 0 min 113 W/m 3,2 km/h (1 Bft) 91,49 %
15.03.2023 12:34 6,1 C 6,1 C 2,2 C 76 % 1019,5 hPa 0,0 l/m 0 min 0 min 138 W/m 6,4 km/h (2 Bft) 95,74 %
15.03.2023 12:36 6,1 C 7,2 C 2,2 C 76 % 1019,5 hPa 0,0 l/m 0 min 0 min 165 W/m 12,9 km/h (3 Bft) 95,74 %
15.03.2023 12:38 6,1 C 9,4 C 2,8 C 76 % 1019,5 hPa 0,0 l/m 2 min 0 min 462 W/m 9,7 km/h (2 Bft) 95,74 %
15.03.2023 12:40 6,2 C 10,6 C 2,8 C 77 % 1019,5 hPa 0,0 l/m 2 min 0 min 678 W/m 6,4 km/h (2 Bft) 95,74 %
15.03.2023 12:42 6,3 C 10,6 C 2,8 C 77 % 1019,6 hPa 0,0 l/m 2 min 0 min 670 W/m 3,2 km/h (1 Bft) 95,65 %
15.03.2023 12:44 6,5 C 11,7 C 3,3 C 77 % 1019,6 hPa 0,0 l/m 2 min 0 min 676 W/m 6,4 km/h (2 Bft) 93,62 %
15.03.2023 12:46 6,7 C 12,8 C 3,3 C 77 % 1019,6 hPa 0,0 l/m 2 min 0 min 677 W/m 6,4 km/h (2 Bft) 91,49 %
15.03.2023 12:48 6,9 C 14,4 C 3,3 C 77 % 1019,6 hPa 0,0 l/m 2 min 0 min 680 W/m 6,4 km/h (2 Bft) 95,74 %
15.03.2023 12:50 7,1 C 15,6 C 3,3 C 76 % 1019,6 hPa 0,0 l/m 2 min 0 min 684 W/m 6,4 km/h (2 Bft) 93,62 %
15.03.2023 12:52 7,2 C 16,1 C 3,3 C 74 % 1019,6 hPa 0,0 l/m 2 min 0 min 688 W/m 6,4 km/h (2 Bft) 97,87 %
15.03.2023 12:54 7,3 C 16,7 C 3,3 C 73 % 1019,6 hPa 0,0 l/m 2 min 0 min 693 W/m 9,7 km/h (2 Bft) 100,00 %
15.03.2023 12:56 7,4 C 17,8 C 3,3 C 72 % 1019,6 hPa 0,0 l/m 2 min 0 min 689 W/m 3,2 km/h (1 Bft) 100,00 %
15.03.2023 12:58 7,5 C 18,3 C 3,3 C 72 % 1019,6 hPa 0,0 l/m 2 min 0 min 686 W/m 6,4 km/h (2 Bft) 97,87 %
15.03.2023 13:00 7,6 C 18,3 C 3,3 C 71 % 1019,5 hPa 0,0 l/m 2 min 0 min 682 W/m 6,4 km/h (2 Bft) 100,00 %
15.03.2023 13:02 7,7 C 18,3 C 3,9 C 72 % 1019,5 hPa 0,0 l/m 2 min 0 min 689 W/m 6,4 km/h (2 Bft) 95,74 %
15.03.2023 13:04 7,8 C 19,4 C 3,9 C 72 % 1019,5 hPa 0,0 l/m 2 min 0 min 694 W/m 6,4 km/h (2 Bft) 100,00 %
15.03.2023 13:06 8,0 C 20,0 C 3,9 C 71 % 1019,5 hPa 0,0 l/m 2 min 0 min 692 W/m 6,4 km/h (2 Bft) 100,00 %
15.03.2023 13:08 8,1 C 20,0 C 3,9 C 70 % 1019,5 hPa 0,0 l/m 2 min 0 min 671 W/m 6,4 km/h (2 Bft) 100,00 %
15.03.2023 13:10 8,2 C 19,4 C 3,9 C 70 % 1019,5 hPa 0,0 l/m 2 min 0 min 688 W/m 6,4 km/h (2 Bft) 100,00 %
15.03.2023 13:12 8,3 C 19,4 C 3,9 C 69 % 1019,5 hPa 0,0 l/m 2 min 0 min 706 W/m 6,4 km/h (2 Bft) 100,00 %
15.03.2023 13:14 8,4 C 19,4 C 3,9 C 68 % 1019,5 hPa 0,0 l/m 2 min 0 min 712 W/m 9,7 km/h (2 Bft) 91,49 %
15.03.2023 13:16 8,5 C 16,7 C 4,4 C 68 % 1019,5 hPa 0,0 l/m 2 min 0 min 535 W/m 6,4 km/h (2 Bft) 100,00 %
15.03.2023 13:18 8,4 C 13,3 C 3,9 C 66 % 1019,5 hPa 0,0 l/m 0 min 0 min 146 W/m 6,4 km/h (2 Bft) 100,00 %
15.03.2023 13:20 8,4 C 14,4 C 3,9 C 68 % 1019,5 hPa 0,0 l/m 0 min 0 min 221 W/m 6,4 km/h (2 Bft) 100,00 %
15.03.2023 13:22 8,5 C 16,1 C 4,4 C 69 % 1019,5 hPa 0,0 l/m 0 min 0 min 221 W/m 3,2 km/h (1 Bft) 100,00 %
15.03.2023 13:24 8,6 C 17,2 C 4,4 C 68 % 1019,5 hPa 0,0 l/m 2 min 0 min 715 W/m 6,4 km/h (2 Bft) 97,83 %
15.03.2023 13:26 8,6 C 15,6 C 4,4 C 67 % 1019,4 hPa 0,0 l/m 2 min 0 min 622 W/m 3,2 km/h (1 Bft) 97,87 %
15.03.2023 13:28 8,6 C 12,8 C 4,4 C 67 % 1019,4 hPa 0,0 l/m 0 min 0 min 159 W/m 9,7 km/h (2 Bft) 100,00 %
15.03.2023 13:30 8,4 C 10,6 C 3,9 C 66 % 1019,4 hPa 0,0 l/m 0 min 0 min 126 W/m 6,4 km/h (2 Bft) 100,00 %
15.03.2023 13:32 8,3 C 9,4 C 3,9 C 66 % 1019,4 hPa 0,0 l/m 0 min 0 min 128 W/m 3,2 km/h (1 Bft) 100,00 %
15.03.2023 13:34 8,2 C 8,9 C 3,9 C 67 % 1019,5 hPa 0,0 l/m 0 min 0 min 151 W/m 6,4 km/h (2 Bft) 100,00 %
15.03.2023 13:36 8,0 C 11,7 C 3,9 C 67 % 1019,5 hPa 0,0 l/m 0 min 0 min 222 W/m 3,2 km/h (1 Bft) 100,00 %
15.03.2023 13:38 8,0 C 13,3 C 3,9 C 67 % 1019,5 hPa 0,0 l/m 2 min 0 min 745 W/m 9,7 km/h (2 Bft) 100,00 %
15.03.2023 13:40 8,1 C 14,4 C 3,9 C 68 % 1019,5 hPa 0,0 l/m 2 min 0 min 727 W/m 6,4 km/h (2 Bft) 100,00 %
15.03.2023 13:42 8,2 C 16,1 C 4,4 C 68 % 1019,4 hPa 0,0 l/m 2 min 0 min 725 W/m 6,4 km/h (2 Bft) 97,87 %
15.03.2023 13:44 8,3 C 16,1 C 4,4 C 67 % 1019,4 hPa 0,0 l/m 2 min 0 min 716 W/m 9,7 km/h (2 Bft) 100,00 %
15.03.2023 13:46 8,4 C 14,4 C 4,4 C 66 % 1019,4 hPa 0,0 l/m 2 min 0 min 715 W/m 9,7 km/h (2 Bft) 100,00 %
15.03.2023 13:48 8,4 C 13,3 C 4,4 C 66 % 1019,4 hPa 0,0 l/m 0 min 0 min 118 W/m 9,7 km/h (2 Bft) 100,00 %
15.03.2023 13:50 8,5 C 14,4 C 4,4 C 66 % 1019,4 hPa 0,0 l/m 2 min 0 min 513 W/m 9,7 km/h (2 Bft) 100,00 %
15.03.2023 13:52 8,5 C 15,6 C 4,4 C 64 % 1019,4 hPa 0,0 l/m 2 min 0 min 674 W/m 6,4 km/h (2 Bft) 97,87 %
15.03.2023 13:54 8,6 C 16,7 C 4,4 C 64 % 1019,4 hPa 0,0 l/m 2 min 0 min 673 W/m 6,4 km/h (2 Bft) 100,00 %
15.03.2023 13:56 8,8 C 17,2 C 4,4 C 64 % 1019,4 hPa 0,0 l/m 2 min 0 min 674 W/m 6,4 km/h (2 Bft) 100,00 %
15.03.2023 13:58 8,9 C 16,7 C 4,4 C 64 % 1019,3 hPa 0,0 l/m 2 min 0 min 671 W/m 6,4 km/h (2 Bft) 97,87 %
15.03.2023 14:00 8,9 C 16,7 C 4,4 C 63 % 1019,3 hPa 0,0 l/m 2 min 0 min 663 W/m 9,7 km/h (2 Bft) 100,00 %
15.03.2023 14:02 9,1 C 16,7 C 4,4 C 63 % 1019,3 hPa 0,0 l/m 2 min 0 min 655 W/m 6,4 km/h (2 Bft) 97,83 %
15.03.2023 14:04 9,2 C 16,7 C 4,4 C 63 % 1019,3 hPa 0,0 l/m 2 min 0 min 663 W/m 3,2 km/h (1 Bft) 100,00 %
15.03.2023 14:06 9,3 C 16,1 C 4,4 C 62 % 1019,3 hPa 0,0 l/m 2 min 0 min 655 W/m 9,7 km/h (2 Bft) 100,00 %
15.03.2023 14:08 9,4 C 15,6 C 4,4 C 62 % 1019,3 hPa 0,0 l/m 2 min 0 min 652 W/m 6,4 km/h (2 Bft) 100,00 %
15.03.2023 14:10 9,6 C 16,1 C 5,0 C 61 % 1019,3 hPa 0,0 l/m 2 min 0 min 660 W/m 12,9 km/h (3 Bft) 100,00 %
15.03.2023 14:12 9,7 C 15,6 C 5,0 C 61 % 1019,4 hPa 0,0 l/m 2 min 0 min 644 W/m 12,9 km/h (3 Bft) 100,00 %
15.03.2023 14:14 9,8 C 15,6 C 5,0 C 61 % 1019,3 hPa 0,0 l/m 2 min 0 min 666 W/m 12,9 km/h (3 Bft) 100,00 %
15.03.2023 14:16 9,8 C 14,4 C 5,0 C 60 % 1019,3 hPa 0,0 l/m 2 min 0 min 667 W/m 22,5 km/h (4 Bft) 100,00 %
15.03.2023 14:18 9,9 C 14,4 C 5,0 C 60 % 1019,3 hPa 0,0 l/m 2 min 0 min 669 W/m 6,4 km/h (2 Bft) 100,00 %
15.03.2023 14:20 10,1 C 14,4 C 5,0 C 59 % 1019,4 hPa 0,0 l/m 2 min 0 min 673 W/m 6,4 km/h (2 Bft) 100,00 %
15.03.2023 14:22 10,1 C 13,9 C 5,0 C 59 % 1019,3 hPa 0,0 l/m 2 min 0 min 678 W/m 19,3 km/h (3 Bft) 97,87 %
15.03.2023 14:24 10,1 C 14,4 C 5,0 C 58 % 1019,3 hPa 0,0 l/m 2 min 0 min 678 W/m 6,4 km/h (2 Bft) 100,00 %
15.03.2023 14:26 10,1 C 14,4 C 5,0 C 59 % 1019,3 hPa 0,0 l/m 2 min 0 min 669 W/m 16,1 km/h (3 Bft) 100,00 %
15.03.2023 14:28 10,1 C 13,9 C 5,0 C 58 % 1019,3 hPa 0,0 l/m 2 min 0 min 661 W/m 19,3 km/h (3 Bft) 95,65 %
15.03.2023 14:30 10,1 C 13,3 C 5,0 C 59 % 1019,3 hPa 0,0 l/m 2 min 0 min 677 W/m 12,9 km/h (3 Bft) 95,74 %
15.03.2023 14:32 10,1 C 13,3 C 5,0 C 58 % 1019,2 hPa 0,0 l/m 2 min 0 min 655 W/m 6,4 km/h (2 Bft) 100,00 %
15.03.2023 14:34 10,1 C 13,9 C 5,0 C 59 % 1019,2 hPa 0,0 l/m 2 min 0 min 618 W/m 9,7 km/h (2 Bft) 100,00 %
15.03.2023 14:36 10,1 C 14,4 C 5,0 C 58 % 1019,3 hPa 0,0 l/m 2 min 0 min 615 W/m 16,1 km/h (3 Bft) 97,87 %
15.03.2023 14:38 10,1 C 14,4 C 5,0 C 57 % 1019,3 hPa 0,0 l/m 2 min 0 min 617 W/m 6,4 km/h (2 Bft) 97,87 %
15.03.2023 14:40 10,2 C 15,0 C 5,6 C 57 % 1019,4 hPa 0,0 l/m 2 min 0 min 629 W/m 6,4 km/h (2 Bft) 100,00 %
15.03.2023 14:42 10,2 C 14,4 C 5,6 C 56 % 1019,3 hPa 0,0 l/m 2 min 0 min 644 W/m 12,9 km/h (3 Bft) 100,00 %
15.03.2023 14:44 10,2 C 14,4 C 5,0 C 56 % 1019,4 hPa 0,0 l/m 2 min 0 min 623 W/m 12,9 km/h (3 Bft) 100,00 %
15.03.2023 14:46 10,1 C 13,9 C 5,0 C 55 % 1019,3 hPa 0,0 l/m 2 min 0 min 610 W/m 16,1 km/h (3 Bft) 97,87 %
15.03.2023 14:48 10,0 C 13,3 C 5,0 C 56 % 1019,3 hPa 0,0 l/m 2 min 0 min 542 W/m 6,4 km/h (2 Bft) 95,74 %
15.03.2023 14:50 10,1 C 12,8 C 5,0 C 58 % 1019,4 hPa 0,0 l/m 2 min 0 min 354 W/m 12,9 km/h (3 Bft) 97,87 %
15.03.2023 14:52 9,9 C 11,1 C 5,0 C 57 % 1019,3 hPa 0,0 l/m 0 min 0 min 172 W/m 16,1 km/h (3 Bft) 97,87 %
15.03.2023 14:54 9,8 C 10,6 C 5,0 C 57 % 1019,4 hPa 0,0 l/m 0 min 0 min 172 W/m 9,7 km/h (2 Bft) 97,83 %
15.03.2023 14:56 9,7 C 10,0 C 4,4 C 57 % 1019,4 hPa 0,0 l/m 0 min 0 min 162 W/m 6,4 km/h (2 Bft) 97,87 %
15.03.2023 14:58 9,7 C 10,0 C 4,4 C 57 % 1019,4 hPa 0,0 l/m 0 min 0 min 157 W/m 3,2 km/h (1 Bft) 97,87 %
15.03.2023 15:00 9,6 C 10,0 C 4,4 C 57 % 1019,4 hPa 0,0 l/m 0 min 0 min 170 W/m 6,4 km/h (2 Bft) 95,74 %
15.03.2023 15:02 9,6 C 10,0 C 4,4 C 59 % 1019,4 hPa 0,0 l/m 0 min 0 min 179 W/m 6,4 km/h (2 Bft) 93,62 %
15.03.2023 15:04 9,5 C 10,0 C 4,4 C 59 % 1019,4 hPa 0,0 l/m 0 min 0 min 221 W/m 6,4 km/h (2 Bft) 95,74 %
15.03.2023 15:06 9,5 C 11,1 C 5,0 C 59 % 1019,4 hPa 0,0 l/m 2 min 0 min 387 W/m 6,4 km/h (2 Bft) 93,62 %
15.03.2023 15:08 9,5 C 10,6 C 5,0 C 59 % 1019,5 hPa 0,0 l/m 2 min 0 min 340 W/m 9,7 km/h (2 Bft) 97,87 %
15.03.2023 15:10 9,5 C 11,1 C 5,0 C 59 % 1019,4 hPa 0,0 l/m 2 min 0 min 266 W/m 9,7 km/h (2 Bft) 89,36 %
15.03.2023 15:12 9,4 C 11,7 C 5,0 C 58 % 1019,4 hPa 0,0 l/m 2 min 0 min 349 W/m 12,9 km/h (3 Bft) 95,74 %
15.03.2023 15:14 9,4 C 11,1 C 5,0 C 58 % 1019,4 hPa 0,0 l/m 2 min 0 min 367 W/m 3,2 km/h (1 Bft) 95,74 %
15.03.2023 15:16 9,4 C 11,1 C 5,0 C 57 % 1019,4 hPa 0,0 l/m 2 min 0 min 392 W/m 3,2 km/h (1 Bft) 95,74 %
15.03.2023 15:18 9,5 C 11,1 C 5,0 C 58 % 1019,4 hPa 0,0 l/m 2 min 0 min 359 W/m 6,4 km/h (2 Bft) 95,74 %
15.03.2023 15:20 9,5 C 11,1 C 5,0 C 57 % 1019,4 hPa 0,0 l/m 2 min 0 min 362 W/m 9,7 km/h (2 Bft) 93,48 %
15.03.2023 15:22 9,5 C 10,6 C 4,4 C 56 % 1019,4 hPa 0,0 l/m 2 min 0 min 379 W/m 12,9 km/h (3 Bft) 95,74 %
15.03.2023 15:24 9,5 C 10,6 C 4,4 C 57 % 1019,4 hPa 0,0 l/m 2 min 0 min 386 W/m 9,7 km/h (2 Bft) 95,74 %
15.03.2023 15:26 9,6 C 11,1 C 5,0 C 58 % 1019,4 hPa 0,0 l/m 2 min 0 min 374 W/m 6,4 km/h (2 Bft) 97,87 %
15.03.2023 15:28 9,6 C 11,1 C 5,0 C 57 % 1019,5 hPa 0,0 l/m 2 min 0 min 364 W/m 9,7 km/h (2 Bft) 95,74 %
15.03.2023 15:30 9,6 C 10,6 C 4,4 C 56 % 1019,5 hPa 0,0 l/m 2 min 0 min 324 W/m 9,7 km/h (2 Bft) 95,74 %
15.03.2023 15:32 9,6 C 11,1 C 4,4 C 56 % 1019,5 hPa 0,0 l/m 2 min 0 min 329 W/m 6,4 km/h (2 Bft) 95,65 %
15.03.2023 15:34 9,6 C 11,1 C 5,0 C 57 % 1019,6 hPa 0,0 l/m 2 min 0 min 320 W/m 9,7 km/h (2 Bft) 95,74 %
15.03.2023 15:36 9,7 C 11,7 C 5,0 C 58 % 1019,6 hPa 0,0 l/m 2 min 0 min 339 W/m 6,4 km/h (2 Bft) 95,74 %
15.03.2023 15:38 9,8 C 12,2 C 5,0 C 58 % 1019,6 hPa 0,0 l/m 2 min 0 min 351 W/m 9,7 km/h (2 Bft) 95,74 %
15.03.2023 15:40 9,8 C 11,7 C 5,0 C 57 % 1019,6 hPa 0,0 l/m 2 min 0 min 323 W/m 9,7 km/h (2 Bft) 95,74 %
15.03.2023 15:42 9,8 C 12,2 C 5,0 C 57 % 1019,7 hPa 0,0 l/m 2 min 0 min 328 W/m 9,7 km/h (2 Bft) 95,74 %
15.03.2023 15:44 9,8 C 11,7 C 5,0 C 57 % 1019,6 hPa 0,0 l/m 2 min 0 min 282 W/m 6,4 km/h (2 Bft) 95,74 %
15.03.2023 15:46 9,8 C 11,1 C 5,0 C 58 % 1019,6 hPa 0,0 l/m 2 min 0 min 250 W/m 9,7 km/h (2 Bft) 95,65 %
15.03.2023 15:48 9,7 C 11,1 C 5,0 C 58 % 1019,6 hPa 0,0 l/m 2 min 0 min 245 W/m 6,4 km/h (2 Bft) 95,74 %
15.03.2023 15:50 9,7 C 10,6 C 4,4 C 57 % 1019,6 hPa 0,0 l/m 2 min 0 min 280 W/m 12,9 km/h (3 Bft) 93,62 %
15.03.2023 15:52 9,6 C 10,6 C 4,4 C 56 % 1019,6 hPa 0,0 l/m 2 min 0 min 286 W/m 6,4 km/h (2 Bft) 95,74 %
15.03.2023 15:54 9,6 C 10,6 C 4,4 C 56 % 1019,6 hPa 0,0 l/m 2 min 0 min 268 W/m 6,4 km/h (2 Bft) 93,62 %
15.03.2023 15:56 9,5 C 10,6 C 4,4 C 57 % 1019,6 hPa 0,0 l/m 2 min 0 min 255 W/m 3,2 km/h (1 Bft) 95,74 %
15.03.2023 15:58 9,5 C 10,6 C 4,4 C 57 % 1019,7 hPa 0,0 l/m 2 min 0 min 255 W/m 9,7 km/h (2 Bft) 95,65 %
15.03.2023 16:00 9,4 C 10,0 C 3,9 C 55 % 1019,7 hPa 0,0 l/m 2 min 0 min 259 W/m 6,4 km/h (2 Bft) 95,74 %
15.03.2023 16:02 9,4 C 10,6 C 4,4 C 55 % 1019,7 hPa 0,0 l/m 2 min 0 min 256 W/m 3,2 km/h (1 Bft) 97,87 %
15.03.2023 16:04 9,3 C 11,1 C 4,4 C 56 % 1019,7 hPa 0,0 l/m 2 min 0 min 248 W/m 6,4 km/h (2 Bft) 97,87 %
15.03.2023 16:06 9,3 C 11,1 C 4,4 C 57 % 1019,7 hPa 0,0 l/m 2 min 0 min 223 W/m 3,2 km/h (1 Bft) 97,87 %
15.03.2023 16:08 9,3 C 11,1 C 4,4 C 56 % 1019,7 hPa 0,0 l/m 2 min 0 min 230 W/m 6,4 km/h (2 Bft) 97,87 %
15.03.2023 16:10 9,3 C 11,1 C 4,4 C 56 % 1019,7 hPa 0,0 l/m 2 min 0 min 225 W/m 6,4 km/h (2 Bft) 97,87 %
15.03.2023 16:12 9,3 C 10,6 C 4,4 C 56 % 1019,7 hPa 0,0 l/m 2 min 0 min 232 W/m 6,4 km/h (2 Bft) 95,65 %
15.03.2023 16:14 9,3 C 10,6 C 4,4 C 56 % 1019,7 hPa 0,0 l/m 2 min 0 min 229 W/m 12,9 km/h (3 Bft) 97,87 %
15.03.2023 16:16 9,3 C 10,6 C 4,4 C 55 % 1019,6 hPa 0,0 l/m 2 min 0 min 233 W/m 6,4 km/h (2 Bft) 95,74 %
15.03.2023 16:18 9,3 C 10,6 C 4,4 C 55 % 1019,7 hPa 0,0 l/m 2 min 0 min 226 W/m 12,9 km/h (3 Bft) 97,87 %
15.03.2023 16:20 9,3 C 10,6 C 4,4 C 54 % 1019,6 hPa 0,0 l/m 2 min 0 min 216 W/m 3,2 km/h (1 Bft) 95,74 %
15.03.2023 16:22 9,3 C 10,6 C 4,4 C 56 % 1019,6 hPa 0,0 l/m 2 min 0 min 213 W/m 6,4 km/h (2 Bft) 95,74 %
15.03.2023 16:24 9,3 C 10,6 C 4,4 C 55 % 1019,6 hPa 0,0 l/m 2 min 0 min 213 W/m 3,2 km/h (1 Bft) 100,00 %
15.03.2023 16:26 9,3 C 10,6 C 4,4 C 55 % 1019,6 hPa 0,0 l/m 2 min 0 min 207 W/m 3,2 km/h (1 Bft) 100,00 %
15.03.2023 16:28 9,3 C 10,6 C 4,4 C 54 % 1019,6 hPa 0,0 l/m 2 min 0 min 200 W/m 0,0 km/h (0 Bft) 100,00 %
15.03.2023 16:30 9,2 C 10,0 C 4,4 C 53 % 1019,5 hPa 0,0 l/m 2 min 0 min 194 W/m 0,0 km/h (0 Bft) 95,74 %
15.03.2023 16:32 9,2 C 10,0 C 4,4 C 53 % 1019,5 hPa 0,0 l/m 2 min 0 min 197 W/m 6,4 km/h (2 Bft) 100,00 %
15.03.2023 16:34 9,2 C 9,4 C 4,4 C 53 % 1019,4 hPa 0,0 l/m 2 min 0 min 191 W/m 3,2 km/h (1 Bft) 100,00 %
15.03.2023 16:36 9,2 C 9,4 C 4,4 C 55 % 1019,4 hPa 0,0 l/m 2 min 0 min 188 W/m 6,4 km/h (2 Bft) 100,00 %
15.03.2023 16:38 9,1 C 9,4 C 4,4 C 56 % 1019,4 hPa 0,0 l/m 2 min 0 min 192 W/m 6,4 km/h (2 Bft) 100,00 %
15.03.2023 16:40 9,1 C 9,4 C 4,4 C 56 % 1019,4 hPa 0,0 l/m 2 min 0 min 192 W/m 6,4 km/h (2 Bft) 100,00 %
15.03.2023 16:42 9,1 C 9,4 C 4,4 C 56 % 1019,4 hPa 0,0 l/m 2 min 0 min 187 W/m 12,9 km/h (3 Bft) 100,00 %
15.03.2023 16:44 9,0 C 8,9 C 4,4 C 55 % 1019,3 hPa 0,0 l/m 2 min 0 min 179 W/m 6,4 km/h (2 Bft) 100,00 %
15.03.2023 16:46 9,0 C 8,9 C 4,4 C 55 % 1019,4 hPa 0,0 l/m 2 min 0 min 174 W/m 3,2 km/h (1 Bft) 100,00 %
15.03.2023 16:48 9,0 C 9,4 C 4,4 C 55 % 1019,3 hPa 0,0 l/m 2 min 0 min 171 W/m 3,2 km/h (1 Bft) 97,87 %
15.03.2023 16:50 9,0 C 9,4 C 4,4 C 57 % 1019,3 hPa 0,0 l/m 2 min 0 min 172 W/m 6,4 km/h (2 Bft) 100,00 %
15.03.2023 16:52 8,9 C 8,9 C 4,4 C 56 % 1019,3 hPa 0,0 l/m 2 min 0 min 160 W/m 12,9 km/h (3 Bft) 100,00 %
15.03.2023 16:54 8,9 C 8,9 C 4,4 C 56 % 1019,3 hPa 0,0 l/m 2 min 0 min 130 W/m 12,9 km/h (3 Bft) 100,00 %
15.03.2023 16:56 8,8 C 8,3 C 3,9 C 56 % 1019,4 hPa 0,0 l/m 0 min 0 min 125 W/m 12,9 km/h (3 Bft) 97,87 %
15.03.2023 16:58 8,8 C 8,3 C 3,9 C 55 % 1019,3 hPa 0,0 l/m 2 min 0 min 126 W/m 6,4 km/h (2 Bft) 100,00 %
15.03.2023 17:00 8,8 C 8,3 C 3,9 C 56 % 1019,3 hPa 0,0 l/m 2 min 0 min 150 W/m 12,9 km/h (3 Bft) 100,00 %
15.03.2023 17:02 8,8 C 8,3 C 3,9 C 57 % 1019,3 hPa 0,0 l/m 2 min 0 min 142 W/m 6,4 km/h (2 Bft) 100,00 %
15.03.2023 17:04 8,7 C 8,3 C 3,9 C 57 % 1019,3 hPa 0,0 l/m 2 min 0 min 120 W/m 6,4 km/h (2 Bft) 100,00 %
15.03.2023 17:06 8,7 C 8,3 C 3,9 C 57 % 1019,3 hPa 0,0 l/m 0 min 0 min 113 W/m 9,7 km/h (2 Bft) 100,00 %
15.03.2023 17:08 8,6 C 8,3 C 3,9 C 56 % 1019,3 hPa 0,0 l/m 0 min 0 min 109 W/m 6,4 km/h (2 Bft) 100,00 %
15.03.2023 17:10 8,6 C 8,3 C 3,9 C 58 % 1019,3 hPa 0,0 l/m 0 min 0 min 104 W/m 6,4 km/h (2 Bft) 100,00 %
15.03.2023 17:12 8,6 C 8,3 C 3,9 C 57 % 1019,3 hPa 0,0 l/m 0 min 0 min 102 W/m 6,4 km/h (2 Bft) 100,00 %
15.03.2023 17:14 8,6 C 8,3 C 3,9 C 58 % 1019,2 hPa 0,0 l/m 2 min 0 min 107 W/m 12,9 km/h (3 Bft) 97,87 %
15.03.2023 17:16 8,5 C 7,8 C 3,9 C 57 % 1019,3 hPa 0,0 l/m 2 min 0 min 107 W/m 6,4 km/h (2 Bft) 97,87 %
15.03.2023 17:18 8,4 C 7,8 C 3,9 C 57 % 1019,3 hPa 0,0 l/m 2 min 0 min 99 W/m 6,4 km/h (2 Bft) 97,83 %
15.03.2023 17:20 8,4 C 7,8 C 3,9 C 57 % 1019,3 hPa 0,0 l/m 0 min 0 min 90 W/m 6,4 km/h (2 Bft) 97,87 %
15.03.2023 17:22 8,4 C 7,8 C 3,9 C 57 % 1019,3 hPa 0,0 l/m 0 min 0 min 84 W/m 6,4 km/h (2 Bft) 97,87 %
15.03.2023 17:24 8,3 C 7,8 C 3,9 C 57 % 1019,3 hPa 0,0 l/m 0 min 0 min 80 W/m 6,4 km/h (2 Bft) 97,87 %
15.03.2023 17:26 8,3 C 7,8 C 3,3 C 57 % 1019,3 hPa 0,0 l/m 0 min 0 min 77 W/m 6,4 km/h (2 Bft) 95,74 %
15.03.2023 17:28 8,2 C 7,8 C 3,3 C 58 % 1019,3 hPa 0,0 l/m 0 min 0 min 74 W/m 3,2 km/h (1 Bft) 95,74 %
15.03.2023 17:30 8,2 C 7,8 C 3,3 C 59 % 1019,3 hPa 0,0 l/m 0 min 0 min 72 W/m 6,4 km/h (2 Bft) 97,83 %
15.03.2023 17:32 8,2 C 7,8 C 3,3 C 59 % 1019,3 hPa 0,0 l/m 0 min 0 min 69 W/m 3,2 km/h (1 Bft) 95,74 %
15.03.2023 17:34 8,2 C 7,8 C 3,3 C 60 % 1019,4 hPa 0,0 l/m 0 min 0 min 63 W/m 3,2 km/h (1 Bft) 97,87 %
15.03.2023 17:36 8,1 C 7,8 C 3,3 C 61 % 1019,3 hPa 0,0 l/m 0 min 0 min 59 W/m 3,2 km/h (1 Bft) 97,87 %
15.03.2023 17:38 8,1 C 7,2 C 3,3 C 61 % 1019,3 hPa 0,0 l/m 0 min 0 min 56 W/m 12,9 km/h (3 Bft) 95,65 %
15.03.2023 17:40 8,1 C 7,2 C 3,3 C 61 % 1019,4 hPa 0,0 l/m 0 min 0 min 52 W/m 12,9 km/h (3 Bft) 87,23 %
15.03.2023 17:42 8,0 C 7,2 C 3,3 C 61 % 1019,4 hPa 0,0 l/m 0 min 0 min 50 W/m 6,4 km/h (2 Bft) 65,91 %
15.03.2023 17:44 8,0 C 7,2 C 3,3 C 60 % 1019,4 hPa 0,0 l/m 0 min 0 min 48 W/m 12,9 km/h (3 Bft) 93,48 %
15.03.2023 17:46 7,9 C 7,2 C 3,3 C 60 % 1019,4 hPa 0,0 l/m 0 min 0 min 45 W/m 6,4 km/h (2 Bft) 95,74 %
15.03.2023 17:48 7,9 C 7,2 C 3,3 C 60 % 1019,5 hPa 0,0 l/m 0 min 0 min 43 W/m 12,9 km/h (3 Bft) 95,74 %
15.03.2023 17:50 7,8 C 7,2 C 3,3 C 60 % 1019,5 hPa 0,0 l/m 0 min 0 min 40 W/m 16,1 km/h (3 Bft) 95,74 %
15.03.2023 17:52 7,8 C 6,7 C 3,3 C 60 % 1019,6 hPa 0,0 l/m 0 min 0 min 37 W/m 9,7 km/h (2 Bft) 95,74 %
15.03.2023 17:54 7,7 C 6,7 C 3,3 C 60 % 1019,6 hPa 0,0 l/m 0 min 0 min 34 W/m 9,7 km/h (2 Bft) 95,74 %
15.03.2023 17:56 7,7 C 6,7 C 3,3 C 60 % 1019,5 hPa 0,0 l/m 0 min 0 min 32 W/m 6,4 km/h (2 Bft) 91,49 %
15.03.2023 17:58 7,7 C 6,7 C 2,8 C 60 % 1019,5 hPa 0,0 l/m 0 min 0 min 29 W/m 6,4 km/h (2 Bft) 95,65 %
15.03.2023 18:00 7,7 C 6,7 C 2,8 C 61 % 1019,5 hPa 0,0 l/m 0 min 0 min 26 W/m 6,4 km/h (2 Bft) 93,62 %
15.03.2023 18:02 7,6 C 6,7 C 2,8 C 61 % 1019,6 hPa 0,0 l/m 0 min 0 min 24 W/m 3,2 km/h (1 Bft) 97,87 %
15.03.2023 18:04 7,6 C 6,7 C 2,8 C 61 % 1019,6 hPa 0,0 l/m 0 min 0 min 22 W/m 9,7 km/h (2 Bft) 97,87 %
15.03.2023 18:07 7,5 C 6,7 C 2,8 C 61 % 1019,6 hPa 0,0 l/m 0 min 0 min 19 W/m 9,7 km/h (2 Bft) 92,86 %
15.03.2023 18:08 7,5 C 6,7 C 2,8 C 61 % 1019,6 hPa 0,0 l/m 0 min 0 min 18 W/m 3,2 km/h (1 Bft) 100,00 %
15.03.2023 18:12 7,4 C 6,1 C 2,8 C 61 % 1019,7 hPa 0,0 l/m 0 min 0 min 16 W/m 6,4 km/h (2 Bft) 92,86 %
15.03.2023 18:14 7,4 C 6,1 C 2,8 C 62 % 1019,7 hPa 0,0 l/m 0 min 0 min 14 W/m 6,4 km/h (2 Bft) 95,74 %
15.03.2023 18:16 7,4 C 6,1 C 2,8 C 62 % 1019,6 hPa 0,0 l/m 0 min 0 min 13 W/m 9,7 km/h (2 Bft) 93,62 %
15.03.2023 18:18 7,3 C 6,1 C 2,8 C 62 % 1019,7 hPa 0,0 l/m 0 min 0 min 12 W/m 6,4 km/h (2 Bft) 95,65 %
15.03.2023 18:20 7,3 C 6,1 C 2,8 C 62 % 1019,7 hPa 0,0 l/m 0 min 0 min 11 W/m 6,4 km/h (2 Bft) 95,74 %
15.03.2023 18:22 7,2 C 6,1 C 2,2 C 62 % 1019,7 hPa 0,0 l/m 0 min 0 min 10 W/m 3,2 km/h (1 Bft) 95,74 %
15.03.2023 18:24 7,2 C 6,1 C 2,2 C 62 % 1019,7 hPa 0,0 l/m 0 min 0 min 9 W/m 3,2 km/h (1 Bft) 97,87 %
15.03.2023 18:26 7,2 C 6,1 C 2,2 C 63 % 1019,7 hPa 0,0 l/m 0 min 0 min 7 W/m 6,4 km/h (2 Bft) 95,74 %
15.03.2023 18:28 7,1 C 5,6 C 2,2 C 63 % 1019,7 hPa 0,0 l/m 0 min 0 min 6 W/m 3,2 km/h (1 Bft) 97,87 %
15.03.2023 18:30 7,1 C 5,6 C 2,2 C 63 % 1019,8 hPa 0,0 l/m 0 min 0 min 5 W/m 9,7 km/h (2 Bft) 97,87 %
15.03.2023 18:32 7,0 C 5,6 C 2,2 C 63 % 1019,8 hPa 0,0 l/m 0 min 0 min 3 W/m 3,2 km/h (1 Bft) 97,83 %
15.03.2023 18:34 7,0 C 5,6 C 2,2 C 64 % 1019,8 hPa 0,0 l/m 0 min 0 min 0 W/m 6,4 km/h (2 Bft) 95,74 %
15.03.2023 18:36 6,9 C 5,6 C 2,2 C 64 % 1019,8 hPa 0,0 l/m 0 min 0 min 0 W/m 6,4 km/h (2 Bft) 97,87 %
15.03.2023 18:38 6,9 C 5,6 C 2,2 C 64 % 1019,8 hPa 0,0 l/m 0 min 0 min 0 W/m 9,7 km/h (2 Bft) 95,74 %
15.03.2023 18:40 6,8 C 5,6 C 2,2 C 65 % 1019,8 hPa 0,0 l/m 0 min 0 min 0 W/m 3,2 km/h (1 Bft) 95,74 %
15.03.2023 18:42 6,8 C 5,6 C 2,2 C 65 % 1019,9 hPa 0,0 l/m 0 min 0 min 0 W/m 9,7 km/h (2 Bft) 100,00 %
15.03.2023 18:44 6,7 C 5,6 C 2,2 C 65 % 1019,8 hPa 0,0 l/m 0 min 0 min 0 W/m 6,4 km/h (2 Bft) 100,00 %
15.03.2023 18:46 6,7 C 5,6 C 2,2 C 65 % 1019,8 hPa 0,0 l/m 0 min 0 min 0 W/m 12,9 km/h (3 Bft) 100,00 %
15.03.2023 18:48 6,7 C 5,6 C 1,7 C 65 % 1019,8 hPa 0,0 l/m 0 min 0 min 0 W/m 6,4 km/h (2 Bft) 100,00 %
15.03.2023 18:50 6,6 C 5,6 C 1,7 C 65 % 1019,8 hPa 0,0 l/m 0 min 0 min 0 W/m 6,4 km/h (2 Bft) 100,00 %
15.03.2023 18:52 6,6 C 5,0 C 1,7 C 65 % 1019,8 hPa 0,0 l/m 0 min 0 min 0 W/m 6,4 km/h (2 Bft) 100,00 %
15.03.2023 18:54 6,6 C 5,0 C 1,7 C 66 % 1019,9 hPa 0,0 l/m 0 min 0 min 0 W/m 3,2 km/h (1 Bft) 100,00 %
15.03.2023 18:56 6,5 C 5,0 C 1,7 C 66 % 1019,9 hPa 0,0 l/m 0 min 0 min 0 W/m 3,2 km/h (1 Bft) 100,00 %
15.03.2023 18:58 6,5 C 5,0 C 1,7 C 66 % 1020,0 hPa 0,0 l/m 0 min 0 min 0 W/m 3,2 km/h (1 Bft) 100,00 %
15.03.2023 19:00 6,4 C 5,0 C 1,7 C 66 % 1019,9 hPa 0,0 l/m 0 min 0 min 0 W/m 3,2 km/h (1 Bft) 100,00 %
15.03.2023 19:02 6,4 C 5,0 C 1,7 C 66 % 1020,0 hPa 0,0 l/m 0 min 0 min 0 W/m 3,2 km/h (1 Bft) 100,00 %
15.03.2023 19:04 6,3 C 5,0 C 1,7 C 66 % 1020,0 hPa 0,0 l/m 0 min 0 min 0 W/m 3,2 km/h (1 Bft) 97,87 %
15.03.2023 19:07 6,3 C 5,0 C 1,7 C 67 % 1020,0 hPa 0,0 l/m 0 min 0 min 0 W/m 6,4 km/h (2 Bft) 100,00 %
15.03.2023 19:08 6,3 C 5,0 C 1,7 C 67 % 1020,0 hPa 0,0 l/m 0 min 0 min 0 W/m 3,2 km/h (1 Bft) 100,00 %
15.03.2023 19:10 6,2 C 5,0 C 1,7 C 67 % 1020,0 hPa 0,0 l/m 0 min 0 min 0 W/m 3,2 km/h (1 Bft) 100,00 %
15.03.2023 19:12 6,2 C 5,0 C 1,7 C 67 % 1020,0 hPa 0,0 l/m 0 min 0 min 0 W/m 6,4 km/h (2 Bft) 100,00 %
15.03.2023 19:14 6,2 C 5,0 C 1,7 C 67 % 1020,0 hPa 0,0 l/m 0 min 0 min 0 W/m 6,4 km/h (2 Bft) 100,00 %
15.03.2023 19:16 6,1 C 5,0 C 1,7 C 67 % 1020,0 hPa 0,0 l/m 0 min 0 min 0 W/m 6,4 km/h (2 Bft) 100,00 %
15.03.2023 19:18 6,1 C 5,0 C 1,7 C 67 % 1020,0 hPa 0,0 l/m 0 min 0 min 0 W/m 6,4 km/h (2 Bft) 100,00 %
15.03.2023 19:20 6,1 C 5,0 C 1,7 C 68 % 1020,1 hPa 0,0 l/m 0 min 0 min 0 W/m 6,4 km/h (2 Bft) 100,00 %
15.03.2023 19:22 6,0 C 5,0 C 1,7 C 68 % 1020,0 hPa 0,0 l/m 0 min 0 min 0 W/m 6,4 km/h (2 Bft) 97,87 %
15.03.2023 19:24 6,0 C 5,0 C 1,7 C 68 % 1020,1 hPa 0,0 l/m 0 min 0 min 0 W/m 3,2 km/h (1 Bft) 100,00 %
15.03.2023 19:26 5,9 C 5,0 C 1,1 C 68 % 1020,1 hPa 0,0 l/m 0 min 0 min 0 W/m 6,4 km/h (2 Bft) 100,00 %
15.03.2023 19:28 5,9 C 5,0 C 1,1 C 69 % 1020,1 hPa 0,0 l/m 0 min 0 min 0 W/m 3,2 km/h (1 Bft) 100,00 %
15.03.2023 19:30 5,9 C 4,4 C 1,1 C 69 % 1020,1 hPa 0,0 l/m 0 min 0 min 0 W/m 3,2 km/h (1 Bft) 97,87 %
15.03.2023 19:32 5,9 C 4,4 C 1,1 C 69 % 1020,1 hPa 0,0 l/m 0 min 0 min 0 W/m 3,2 km/h (1 Bft) 100,00 %
15.03.2023 19:34 5,8 C 4,4 C 1,1 C 69 % 1020,2 hPa 0,0 l/m 0 min 0 min 0 W/m 3,2 km/h (1 Bft) 100,00 %
15.03.2023 19:36 5,8 C 4,4 C 1,1 C 70 % 1020,2 hPa 0,0 l/m 0 min 0 min 0 W/m 3,2 km/h (1 Bft) 97,83 %
15.03.2023 19:38 5,8 C 4,4 C 1,1 C 70 % 1020,2 hPa 0,0 l/m 0 min 0 min 0 W/m 6,4 km/h (2 Bft) 97,87 %
15.03.2023 19:40 5,7 C 4,4 C 1,1 C 70 % 1020,2 hPa 0,0 l/m 0 min 0 min 0 W/m 3,2 km/h (1 Bft) 95,83 %
15.03.2023 19:42 5,7 C 4,4 C 1,1 C 70 % 1020,3 hPa 0,0 l/m 0 min 0 min 0 W/m 3,2 km/h (1 Bft) 97,87 %
15.03.2023 19:44 5,7 C 4,4 C 1,1 C 70 % 1020,2 hPa 0,0 l/m 0 min 0 min 0 W/m 3,2 km/h (1 Bft) 97,87 %
15.03.2023 19:46 5,7 C 4,4 C 1,1 C 70 % 1020,3 hPa 0,0 l/m 0 min 0 min 0 W/m 3,2 km/h (1 Bft) 95,74 %
15.03.2023 19:48 5,7 C 4,4 C 1,1 C 71 % 1020,3 hPa 0,0 l/m 0 min 0 min 0 W/m 3,2 km/h (1 Bft) 94,74 %
15.03.2023 19:50 5,6 C 4,4 C 1,1 C 71 % 1020,3 hPa 0,0 l/m 0 min 0 min 0 W/m 3,2 km/h (1 Bft) 95,92 %
15.03.2023 19:52 5,6 C 4,4 C 1,1 C 71 % 1020,3 hPa 0,0 l/m 0 min 0 min 0 W/m 3,2 km/h (1 Bft) 97,87 %
15.03.2023 19:54 5,6 C 4,4 C 1,1 C 71 % 1020,3 hPa 0,0 l/m 0 min 0 min 0 W/m 3,2 km/h (1 Bft) 97,62 %
15.03.2023 19:56 5,6 C 4,4 C 1,1 C 71 % 1020,3 hPa 0,0 l/m 0 min 0 min 0 W/m 0,0 km/h (0 Bft) 94,23 %
15.03.2023 19:58 5,5 C 4,4 C 1,1 C 72 % 1020,3 hPa 0,0 l/m 0 min 0 min 0 W/m 3,2 km/h (1 Bft) 97,87 %
15.03.2023 20:00 5,5 C 4,4 C 1,1 C 72 % 1020,3 hPa 0,0 l/m 0 min 0 min 0 W/m 0,0 km/h (0 Bft) 95,65 %
15.03.2023 20:02 5,4 C 4,4 C 1,1 C 72 % 1020,4 hPa 0,0 l/m 0 min 0 min 0 W/m 0,0 km/h (0 Bft) 95,74 %
15.03.2023 20:04 5,4 C 4,4 C 1,1 C 72 % 1020,3 hPa 0,0 l/m 0 min 0 min 0 W/m 0,0 km/h (0 Bft) 95,45 %
15.03.2023 20:06 5,4 C 4,4 C 1,1 C 72 % 1020,2 hPa 0,0 l/m 0 min 0 min 0 W/m 0,0 km/h (0 Bft) 96,00 %
15.03.2023 20:08 5,4 C 4,4 C 1,1 C 73 % 1020,3 hPa 0,0 l/m 0 min 0 min 0 W/m 0,0 km/h (0 Bft) 95,74 %
15.03.2023 20:10 5,3 C 4,4 C 1,1 C 73 % 1020,3 hPa 0,0 l/m 0 min 0 min 0 W/m 0,0 km/h (0 Bft) 97,87 %
15.03.2023 20:12 5,3 C 4,4 C 1,1 C 73 % 1020,3 hPa 0,0 l/m 0 min 0 min 0 W/m 0,0 km/h (0 Bft) 97,83 %
15.03.2023 20:14 5,3 C 4,4 C 1,1 C 73 % 1020,2 hPa 0,0 l/m 0 min 0 min 0 W/m 0,0 km/h (0 Bft) 95,24 %
15.03.2023 20:16 5,3 C 4,4 C 1,1 C 73 % 1020,3 hPa 0,0 l/m 0 min 0 min 0 W/m 0,0 km/h (0 Bft) 98,08 %
15.03.2023 20:18 5,3 C 4,4 C 1,1 C 73 % 1020,3 hPa 0,0 l/m 0 min 0 min 0 W/m 0,0 km/h (0 Bft) 97,87 %
15.03.2023 20:20 5,2 C 4,4 C 1,1 C 73 % 1020,2 hPa 0,0 l/m 0 min 0 min 0 W/m 6,4 km/h (2 Bft) 97,87 %
15.03.2023 20:22 5,2 C 4,4 C 1,1 C 73 % 1020,3 hPa 0,0 l/m 0 min 0 min 0 W/m 3,2 km/h (1 Bft) 97,87 %
15.03.2023 20:24 5,2 C 4,4 C 1,1 C 73 % 1020,2 hPa 0,0 l/m 0 min 0 min 0 W/m 6,4 km/h (2 Bft) 95,74 %
15.03.2023 20:26 5,2 C 4,4 C 1,1 C 73 % 1020,2 hPa 0,0 l/m 0 min 0 min 0 W/m 3,2 km/h (1 Bft) 97,83 %
15.03.2023 20:28 5,2 C 4,4 C 1,1 C 73 % 1020,1 hPa 0,0 l/m 0 min 0 min 0 W/m 3,2 km/h (1 Bft) 97,87 %
15.03.2023 20:30 5,1 C 4,4 C 1,1 C 73 % 1020,1 hPa 0,0 l/m 0 min 0 min 0 W/m 6,4 km/h (2 Bft) 93,62 %
15.03.2023 20:32 5,1 C 4,4 C 1,1 C 73 % 1020,1 hPa 0,0 l/m 0 min 0 min 0 W/m 3,2 km/h (1 Bft) 97,87 %
15.03.2023 20:34 5,1 C 4,4 C 1,1 C 73 % 1020,2 hPa 0,0 l/m 0 min 0 min 0 W/m 6,4 km/h (2 Bft) 97,87 %
15.03.2023 20:36 5,1 C 4,4 C 1,1 C 73 % 1020,1 hPa 0,0 l/m 0 min 0 min 0 W/m 6,4 km/h (2 Bft) 95,74 %
15.03.2023 20:38 5,1 C 4,4 C 1,1 C 73 % 1020,1 hPa 0,0 l/m 0 min 0 min 0 W/m 6,4 km/h (2 Bft) 97,87 %
15.03.2023 20:40 5,1 C 4,4 C 0,6 C 73 % 1020,1 hPa 0,0 l/m 0 min 0 min 0 W/m 6,4 km/h (2 Bft) 95,65 %
15.03.2023 20:42 5,0 C 4,4 C 1,1 C 74 % 1020,1 hPa 0,0 l/m 0 min 0 min 0 W/m 6,4 km/h (2 Bft) 97,87 %
15.03.2023 20:44 5,0 C 4,4 C 1,1 C 74 % 1020,2 hPa 0,0 l/m 0 min 0 min 0 W/m 3,2 km/h (1 Bft) 97,87 %
15.03.2023 20:46 5,0 C 3,9 C 0,6 C 74 % 1020,1 hPa 0,0 l/m 0 min 0 min 0 W/m 3,2 km/h (1 Bft) 95,74 %
15.03.2023 20:48 5,0 C 3,9 C 0,6 C 74 % 1020,1 hPa 0,0 l/m 0 min 0 min 0 W/m 6,4 km/h (2 Bft) 97,87 %
15.03.2023 20:50 5,0 C 3,9 C 0,6 C 74 % 1020,1 hPa 0,0 l/m 0 min 0 min 0 W/m 6,4 km/h (2 Bft) 95,74 %
15.03.2023 20:52 5,0 C 3,9 C 0,6 C 74 % 1020,2 hPa 0,0 l/m 0 min 0 min 0 W/m 3,2 km/h (1 Bft) 97,87 %
15.03.2023 20:54 4,9 C 3,9 C 0,6 C 74 % 1020,2 hPa 0,0 l/m 0 min 0 min 0 W/m 0,0 km/h (0 Bft) 95,65 %
15.03.2023 20:56 4,9 C 3,9 C 0,6 C 74 % 1020,2 hPa 0,0 l/m 0 min 0 min 0 W/m 3,2 km/h (1 Bft) 97,87 %
15.03.2023 20:58 4,9 C 3,9 C 0,6 C 74 % 1020,1 hPa 0,0 l/m 0 min 0 min 0 W/m 6,4 km/h (2 Bft) 98,04 %
15.03.2023 21:00 4,9 C 3,9 C 0,6 C 75 % 1020,1 hPa 0,0 l/m 0 min 0 min 0 W/m 6,4 km/h (2 Bft) 97,87 %
15.03.2023 21:02 4,9 C 3,9 C 0,6 C 75 % 1020,2 hPa 0,0 l/m 0 min 0 min 0 W/m 6,4 km/h (2 Bft) 97,87 %
15.03.2023 21:04 4,9 C 3,9 C 0,6 C 74 % 1020,2 hPa 0,0 l/m 0 min 0 min 0 W/m 6,4 km/h (2 Bft) 97,87 %
15.03.2023 21:06 4,9 C 3,9 C 0,6 C 75 % 1020,2 hPa 0,0 l/m 0 min 0 min 0 W/m 3,2 km/h (1 Bft) 97,83 %
15.03.2023 21:08 4,9 C 3,9 C 0,6 C 75 % 1020,2 hPa 0,0 l/m 0 min 0 min 0 W/m 3,2 km/h (1 Bft) 97,92 %
15.03.2023 21:10 4,8 C 3,9 C 0,6 C 75 % 1020,2 hPa 0,0 l/m 0 min 0 min 0 W/m 6,4 km/h (2 Bft) 95,74 %
15.03.2023 21:12 4,8 C 3,9 C 0,6 C 75 % 1020,3 hPa 0,0 l/m 0 min 0 min 0 W/m 6,4 km/h (2 Bft) 95,74 %
15.03.2023 21:14 4,8 C 3,9 C 0,6 C 75 % 1020,2 hPa 0,0 l/m 0 min 0 min 0 W/m 3,2 km/h (1 Bft) 97,87 %
15.03.2023 21:16 4,8 C 3,9 C 0,6 C 75 % 1020,3 hPa 0,0 l/m 0 min 0 min 0 W/m 6,4 km/h (2 Bft) 97,83 %
15.03.2023 21:18 4,8 C 3,9 C 0,6 C 75 % 1020,3 hPa 0,0 l/m 0 min 0 min 0 W/m 6,4 km/h (2 Bft) 97,87 %
15.03.2023 21:20 4,8 C 3,9 C 0,6 C 76 % 1020,3 hPa 0,0 l/m 0 min 0 min 0 W/m 6,4 km/h (2 Bft) 97,87 %
15.03.2023 21:22 4,8 C 3,9 C 0,6 C 76 % 1020,3 hPa 0,0 l/m 0 min 0 min 0 W/m 6,4 km/h (2 Bft) 93,62 %
15.03.2023 21:24 4,8 C 3,9 C 0,6 C 76 % 1020,3 hPa 0,0 l/m 0 min 0 min 0 W/m 3,2 km/h (1 Bft) 93,62 %
15.03.2023 21:26 4,8 C 3,9 C 0,6 C 76 % 1020,3 hPa 0,0 l/m 0 min 0 min 0 W/m 9,7 km/h (2 Bft) 93,62 %
15.03.2023 21:28 4,8 C 3,9 C 0,6 C 76 % 1020,3 hPa 0,0 l/m 0 min 0 min 0 W/m 6,4 km/h (2 Bft) 97,87 %
15.03.2023 21:30 4,8 C 3,9 C 0,6 C 76 % 1020,3 hPa 0,0 l/m 0 min 0 min 0 W/m 6,4 km/h (2 Bft) 97,83 %
15.03.2023 21:32 4,7 C 3,9 C 0,6 C 76 % 1020,3 hPa 0,0 l/m 0 min 0 min 0 W/m 9,7 km/h (2 Bft) 94,74 %
15.03.2023 21:34 4,7 C 3,9 C 0,6 C 76 % 1020,4 hPa 0,0 l/m 0 min 0 min 0 W/m 6,4 km/h (2 Bft) 97,83 %
15.03.2023 21:36 4,7 C 3,9 C 0,6 C 76 % 1020,3 hPa 0,0 l/m 0 min 0 min 0 W/m 6,4 km/h (2 Bft) 97,87 %
15.03.2023 21:38 4,7 C 3,9 C 0,6 C 76 % 1020,3 hPa 0,0 l/m 0 min 0 min 0 W/m 6,4 km/h (2 Bft) 95,74 %
15.03.2023 21:40 4,7 C 3,9 C 0,6 C 76 % 1020,3 hPa 0,0 l/m 0 min 0 min 0 W/m 3,2 km/h (1 Bft) 97,92 %
15.03.2023 21:42 4,7 C 3,9 C 0,6 C 76 % 1020,3 hPa 0,0 l/m 0 min 0 min 0 W/m 3,2 km/h (1 Bft) 95,74 %
15.03.2023 21:44 4,7 C 3,9 C 0,6 C 76 % 1020,3 hPa 0,0 l/m 0 min 0 min 0 W/m 12,9 km/h (3 Bft) 97,87 %
15.03.2023 21:46 4,7 C 3,9 C 0,6 C 77 % 1020,3 hPa 0,0 l/m 0 min 0 min 0 W/m 9,7 km/h (2 Bft) 97,87 %
15.03.2023 21:48 4,7 C 3,9 C 0,6 C 77 % 1020,3 hPa 0,0 l/m 0 min 0 min 0 W/m 12,9 km/h (3 Bft) 97,87 %
15.03.2023 21:50 4,7 C 3,9 C 0,6 C 77 % 1020,3 hPa 0,0 l/m 0 min 0 min 0 W/m 6,4 km/h (2 Bft) 100,00 %
15.03.2023 21:52 4,7 C 3,9 C 0,6 C 77 % 1020,3 hPa 0,0 l/m 0 min 0 min 0 W/m 12,9 km/h (3 Bft) 100,00 %
15.03.2023 21:54 4,7 C 3,9 C 0,6 C 77 % 1020,3 hPa 0,0 l/m 0 min 0 min 0 W/m 6,4 km/h (2 Bft) 97,87 %
15.03.2023 21:56 4,6 C 3,9 C 0,6 C 77 % 1020,3 hPa 0,0 l/m 0 min 0 min 0 W/m 16,1 km/h (3 Bft) 97,87 %
15.03.2023 21:58 4,6 C 3,9 C 0,6 C 77 % 1020,3 hPa 0,0 l/m 0 min 0 min 0 W/m 12,9 km/h (3 Bft) 100,00 %
15.03.2023 22:00 4,6 C 3,9 C 0,6 C 77 % 1020,3 hPa 0,0 l/m 0 min 0 min 0 W/m 12,9 km/h (3 Bft) 97,87 %
15.03.2023 22:02 4,6 C 3,9 C 0,6 C 77 % 1020,3 hPa 0,0 l/m 0 min 0 min 0 W/m 6,4 km/h (2 Bft) 93,62 %
15.03.2023 22:04 4,6 C 3,9 C 0,6 C 77 % 1020,2 hPa 0,0 l/m 0 min 0 min 0 W/m 12,9 km/h (3 Bft) 97,87 %
15.03.2023 22:06 4,6 C 3,9 C 0,6 C 77 % 1020,3 hPa 0,0 l/m 0 min 0 min 0 W/m 6,4 km/h (2 Bft) 94,92 %
15.03.2023 22:08 4,6 C 3,9 C 0,6 C 77 % 1020,3 hPa 0,0 l/m 0 min 0 min 0 W/m 6,4 km/h (2 Bft) 94,29 %
15.03.2023 22:10 4,6 C 3,9 C 0,6 C 77 % 1020,3 hPa 0,0 l/m 0 min 0 min 0 W/m 3,2 km/h (1 Bft) 97,87 %
15.03.2023 22:12 4,6 C 3,9 C 0,6 C 77 % 1020,3 hPa 0,0 l/m 0 min 0 min 0 W/m 6,4 km/h (2 Bft) 97,87 %
15.03.2023 22:14 4,6 C 3,9 C 0,6 C 77 % 1020,3 hPa 0,0 l/m 0 min 0 min 0 W/m 6,4 km/h (2 Bft) 97,87 %
15.03.2023 22:16 4,6 C 3,9 C 0,6 C 77 % 1020,2 hPa 0,0 l/m 0 min 0 min 0 W/m 6,4 km/h (2 Bft) 95,74 %
15.03.2023 22:18 4,6 C 3,9 C 0,6 C 77 % 1020,2 hPa 0,0 l/m 0 min 0 min 0 W/m 6,4 km/h (2 Bft) 97,83 %
15.03.2023 22:20 4,5 C 3,3 C 0,6 C 78 % 1020,2 hPa 0,0 l/m 0 min 0 min 0 W/m 12,9 km/h (3 Bft) 97,87 %
15.03.2023 22:22 4,5 C 3,3 C 0,6 C 78 % 1020,3 hPa 0,0 l/m 0 min 0 min 0 W/m 6,4 km/h (2 Bft) 97,87 %
15.03.2023 22:24 4,5 C 3,3 C 0,0 C 78 % 1020,2 hPa 0,0 l/m 0 min 0 min 0 W/m 6,4 km/h (2 Bft) 97,87 %
15.03.2023 22:26 4,4 C 3,3 C 0,0 C 78 % 1020,3 hPa 0,0 l/m 0 min 0 min 0 W/m 12,9 km/h (3 Bft) 97,87 %
15.03.2023 22:28 4,4 C 3,3 C 0,0 C 78 % 1020,2 hPa 0,0 l/m 0 min 0 min 0 W/m 12,9 km/h (3 Bft) 95,74 %
15.03.2023 22:30 4,4 C 3,3 C 0,0 C 78 % 1020,1 hPa 0,0 l/m 0 min 0 min 0 W/m 6,4 km/h (2 Bft) 95,45 %
15.03.2023 22:32 4,4 C 3,3 C 0,0 C 78 % 1020,1 hPa 0,0 l/m 0 min 0 min 0 W/m 6,4 km/h (2 Bft) 94,12 %
15.03.2023 22:34 4,3 C 3,3 C 0,0 C 78 % 1020,1 hPa 0,0 l/m 0 min 0 min 0 W/m 12,9 km/h (3 Bft) 97,87 %
15.03.2023 22:36 4,3 C 3,3 C 0,0 C 79 % 1020,1 hPa 0,0 l/m 0 min 0 min 0 W/m 6,4 km/h (2 Bft) 100,00 %
15.03.2023 22:38 4,3 C 3,3 C 0,0 C 79 % 1020,1 hPa 0,0 l/m 0 min 0 min 0 W/m 6,4 km/h (2 Bft) 97,87 %
15.03.2023 22:40 4,3 C 3,3 C 0,0 C 79 % 1020,0 hPa 0,0 l/m 0 min 0 min 0 W/m 12,9 km/h (3 Bft) 100,00 %
15.03.2023 22:42 4,2 C 3,3 C 0,0 C 79 % 1020,0 hPa 0,0 l/m 0 min 0 min 0 W/m 12,9 km/h (3 Bft) 100,00 %
15.03.2023 22:44 4,2 C 3,3 C 0,0 C 79 % 1020,0 hPa 0,0 l/m 0 min 0 min 0 W/m 12,9 km/h (3 Bft) 100,00 %
15.03.2023 22:46 4,2 C 3,3 C 0,0 C 79 % 1020,0 hPa 0,0 l/m 0 min 0 min 0 W/m 6,4 km/h (2 Bft) 100,00 %
15.03.2023 22:48 4,1 C 3,3 C 0,0 C 79 % 1020,0 hPa 0,0 l/m 0 min 0 min 0 W/m 6,4 km/h (2 Bft) 97,87 %
15.03.2023 22:50 4,1 C 3,3 C 0,0 C 79 % 1020,0 hPa 0,0 l/m 0 min 0 min 0 W/m 12,9 km/h (3 Bft) 95,83 %
15.03.2023 22:52 4,1 C 3,3 C 0,0 C 80 % 1020,0 hPa 0,0 l/m 0 min 0 min 0 W/m 12,9 km/h (3 Bft) 100,00 %
15.03.2023 22:54 4,1 C 3,3 C 0,0 C 79 % 1020,0 hPa 0,0 l/m 0 min 0 min 0 W/m 12,9 km/h (3 Bft) 100,00 %
15.03.2023 22:56 4,0 C 3,3 C 0,0 C 80 % 1020,1 hPa 0,0 l/m 0 min 0 min 0 W/m 19,3 km/h (3 Bft) 97,83 %
15.03.2023 22:58 4,0 C 3,3 C 0,0 C 80 % 1020,0 hPa 0,0 l/m 0 min 0 min 0 W/m 19,3 km/h (3 Bft) 100,00 %
15.03.2023 23:00 3,9 C 3,3 C 0,0 C 80 % 1020,0 hPa 0,0 l/m 0 min 0 min 0 W/m 6,4 km/h (2 Bft) 100,00 %
15.03.2023 23:02 3,9 C 3,3 C 0,0 C 80 % 1019,9 hPa 0,0 l/m 0 min 0 min 0 W/m 12,9 km/h (3 Bft) 100,00 %
15.03.2023 23:04 3,9 C 3,3 C 0,0 C 80 % 1019,9 hPa 0,0 l/m 0 min 0 min 0 W/m 16,1 km/h (3 Bft) 98,00 %
15.03.2023 23:06 3,9 C 3,3 C 0,0 C 80 % 1019,8 hPa 0,0 l/m 0 min 0 min 0 W/m 12,9 km/h (3 Bft) 97,87 %
15.03.2023 23:08 3,9 C 3,3 C 0,0 C 80 % 1019,8 hPa 0,0 l/m 0 min 0 min 0 W/m 12,9 km/h (3 Bft) 97,87 %
15.03.2023 23:10 3,9 C 3,3 C 0,0 C 80 % 1019,9 hPa 0,0 l/m 0 min 0 min 0 W/m 6,4 km/h (2 Bft) 97,83 %
15.03.2023 23:12 3,9 C 3,3 C 0,0 C 80 % 1019,8 hPa 0,0 l/m 0 min 0 min 0 W/m 12,9 km/h (3 Bft) 97,87 %
15.03.2023 23:14 3,8 C 3,3 C 0,0 C 80 % 1019,8 hPa 0,0 l/m 0 min 0 min 0 W/m 12,9 km/h (3 Bft) 98,00 %
15.03.2023 23:16 3,8 C 3,3 C 0,0 C 80 % 1019,8 hPa 0,0 l/m 0 min 0 min 0 W/m 12,9 km/h (3 Bft) 97,87 %
15.03.2023 23:18 3,8 C 3,3 C 0,0 C 80 % 1019,8 hPa 0,0 l/m 0 min 0 min 0 W/m 12,9 km/h (3 Bft) 97,87 %
15.03.2023 23:20 3,8 C 3,3 C 0,0 C 80 % 1019,8 hPa 0,0 l/m 0 min 0 min 0 W/m 6,4 km/h (2 Bft) 97,87 %
15.03.2023 23:22 3,8 C 3,3 C 0,0 C 80 % 1019,8 hPa 0,0 l/m 0 min 0 min 0 W/m 6,4 km/h (2 Bft) 97,87 %
15.03.2023 23:24 3,8 C 2,8 C 0,0 C 80 % 1019,9 hPa 0,0 l/m 0 min 0 min 0 W/m 12,9 km/h (3 Bft) 94,29 %
15.03.2023 23:26 3,8 C 2,8 C 0,0 C 80 % 1019,8 hPa 0,0 l/m 0 min 0 min 0 W/m 12,9 km/h (3 Bft) 97,87 %
15.03.2023 23:28 3,8 C 2,8 C -0,6 C 80 % 1019,9 hPa 0,0 l/m 0 min 0 min 0 W/m 6,4 km/h (2 Bft) 97,83 %
15.03.2023 23:30 3,8 C 2,8 C 0,0 C 80 % 1019,9 hPa 0,0 l/m 0 min 0 min 0 W/m 12,9 km/h (3 Bft) 97,87 %
15.03.2023 23:32 3,7 C 2,8 C 0,0 C 80 % 1019,9 hPa 0,0 l/m 0 min 0 min 0 W/m 9,7 km/h (2 Bft) 97,87 %
15.03.2023 23:34 3,7 C 2,8 C -0,6 C 80 % 1019,8 hPa 0,0 l/m 0 min 0 min 0 W/m 12,9 km/h (3 Bft) 97,87 %
15.03.2023 23:36 3,7 C 2,8 C -0,6 C 80 % 1019,9 hPa 0,0 l/m 0 min 0 min 0 W/m 16,1 km/h (3 Bft) 97,87 %
15.03.2023 23:38 3,7 C 2,8 C -0,6 C 80 % 1019,8 hPa 0,0 l/m 0 min 0 min 0 W/m 6,4 km/h (2 Bft) 100,00 %
15.03.2023 23:40 3,7 C 2,8 C -0,6 C 80 % 1019,8 hPa 0,0 l/m 0 min 0 min 0 W/m 12,9 km/h (3 Bft) 100,00 %
15.03.2023 23:42 3,7 C 2,8 C -0,6 C 80 % 1019,8 hPa 0,0 l/m 0 min 0 min 0 W/m 12,9 km/h (3 Bft) 97,83 %
15.03.2023 23:44 3,7 C 2,8 C -0,6 C 80 % 1019,7 hPa 0,0 l/m 0 min 0 min 0 W/m 6,4 km/h (2 Bft) 100,00 %
15.03.2023 23:46 3,7 C 2,8 C -0,6 C 80 % 1019,8 hPa 0,0 l/m 0 min 0 min 0 W/m 12,9 km/h (3 Bft) 100,00 %
15.03.2023 23:48 3,7 C 2,8 C -0,6 C 80 % 1019,8 hPa 0,0 l/m 0 min 0 min 0 W/m 6,4 km/h (2 Bft) 100,00 %
15.03.2023 23:50 3,6 C 2,8 C -0,6 C 80 % 1019,7 hPa 0,0 l/m 0 min 0 min 0 W/m 6,4 km/h (2 Bft) 97,87 %
15.03.2023 23:52 3,6 C 2,8 C -0,6 C 80 % 1019,8 hPa 0,0 l/m 0 min 0 min 0 W/m 6,4 km/h (2 Bft) 97,87 %
15.03.2023 23:54 3,6 C 2,8 C -0,6 C 80 % 1019,8 hPa 0,0 l/m 0 min 0 min 0 W/m 9,7 km/h (2 Bft) 93,62 %
15.03.2023 23:56 3,6 C 2,8 C -0,6 C 80 % 1019,8 hPa 0,0 l/m 0 min 0 min 0 W/m 9,7 km/h (2 Bft) 97,96 %
15.03.2023 23:58 3,6 C 2,8 C -0,6 C 80 % 1019,7 hPa 0,0 l/m 0 min 0 min 0 W/m 12,9 km/h (3 Bft) 97,87 %
_ Min-Zeit 05:54 05:42 05:02 16:30 00:00 - - - - 02:38 04:20
Minimum _ 2,0 C 1,1 C -1,7 C 53 % 1011,8 hPa - - - - 0,0 km/h (0 Bft) 45,61 %
_ Max-Zeit 14:40 11:04 11:06 08:04 20:02 01:22 09:32 04:24 11:34 00:08 00:14
Maximum _ 10,2 C 20,0 C 11,1 C 97 % 1020,4 hPa 0,2 l/m 2 min 4 min 775 W/m 25,7 km/h
S-SW (4 Bft)
100,00 %
Durchschnitt _ 5,1 C 5,8 C 1,3 C 80 % 1017,5 hPa #1,0 l/m #5:06 h #1:30 h 253 W/m 7,9 km/h (2 Bft) 96,95 %
© 2023 W. Hausmann